GFSGL_925_rhum_003.txt.gz
RH
44 45 48 47 45 44 44 47 57 65 63 75 85 85 90 93 95 93 79 74 78 81 67 62 55 52 48 42 40 40 38 38 41 34 31 29 30 31 32 33 37 40 40
50 46 43 43 46 44 48 58 63 70 75 83 88 89 94 99 96 90 82 66 59 57 58 56 56 51 47 42 38 36 36 34 35 37 33 33 33 33 34 35 36 36 36
52 46 42 45 47 52 56 59 63 61 60 60 60 64 58 57 52 48 46 52 53 51 49 49 46 44 42 41 41 40 39 37 36 35 35 33 33 32 32 33 35 36 37
51 47 44 48 49 48 49 48 46 44 42 38 36 37 37 37 38 38 40 43 40 37 39 42 44 45 46 46 47 45 42 41 38 38 36 34 33 32 32 35 36 35 37
54 50 48 44 44 41 40 41 39 36 34 33 34 35 36 37 43 57 57 54 52 47 44 42 42 45 49 53 54 54 53 52 46 41 40 38 36 34 34 34 37 38 40
54 47 45 44 45 41 39 35 31 31 32 35 36 37 39 40 51 55 61 63 56 51 48 44 44 44 50 51 58 61 61 58 56 54 50 47 45 45 44 45 48 49 52
46 43 40 44 50 41 39 32 31 32 34 37 38 39 43 46 55 58 68 70 65 58 54 51 51 47 47 49 49 50 60 71 78 74 70 67 61 58 59 60 62 60 60
39 40 40 50 51 43 38 33 32 34 36 38 40 45 50 52 62 79 86 70 63 60 57 56 58 56 52 58 72 69 65 68 72 80 79 70 67 66 65 66 66 70 70
38 43 50 51 58 46 37 35 35 36 38 39 45 52 63 67 69 92 81 70 72 71 65 65 74 71 62 74 80 81 78 74 71 78 78 69 65 65 74 80 90 93 82
37 36 43 47 54 50 39 35 35 36 40 52 62 67 73 74 87 78 84 76 82 81 81 71 75 77 83 83 90 93 92 80 80 87 84 89 96 97 83 81 74 77 76
36 39 47 51 49 41 33 35 36 39 48 75 84 80 72 82 74 82 86 80 90 94 84 85 83 97 97 96 97 94 89 93 87 81 79 76 72 70 70 91 82 81 80
45 47 45 44 40 33 36 35 39 42 54 67 76 73 66 68 76 81 88 88 96 95 90 90 97 91 97 97 96 95 97 95 92 94 93 88 87 78 71 72 80 94 92
65 59 46 39 34 34 38 38 40 44 59 70 58 60 56 64 67 73 88 95 94 96 98 96 95 97 97 95 97 90 95 98 97 92 90 91 94 96 95 94 96 98 97
53 44 40 38 47 45 42 40 43 56 68 60 58 59 63 74 61 80 89 92 95 96 96 98 96 96 94 96 96 96 98 96 91 94 93 94 94 98 99 98 98 95 98
57 45 47 48 49 49 46 47 52 66 73 66 65 70 78 74 78 92 96 95 97 97 95 97 96 95 95 94 88 91 93 90 92 97 95 91 92 94 94 98 84 91 94
59 52 56 65 60 60 52 54 65 73 73 75 73 84 82 81 88 91 94 97 98 98 96 94 94 95 94 93 91 88 89 89 90 90 91 93 94 93 92 98 88 82 77
79 73 65 64 62 63 66 72 70 71 81 89 89 83 84 84 86 89 91 96 98 95 93 93 94 95 79 69 82 85 83 90 94 91 92 98 92 95 97 95 90 94 86
87 75 83 80 74 75 80 84 78 75 73 67 88 73 80 92 85 88 89 95 88 91 92 92 86 79 73 70 75 87 88 90 90 93 95 93 93 95 96 91 94 84 80
71 79 90 90 90 86 91 87 83 77 68 65 68 59 70 82 97 98 91 89 88 82 80 71 74 77 82 83 88 88 95 93 93 94 93 96 93 94 90 88 93 92 81
55 71 80 90 92 88 85 84 80 76 68 65 71 70 73 79 83 85 88 81 75 71 75 73 76 82 88 87 88 88 89 88 92 92 93 96 96 92 97 91 89 90 88
60 79 87 86 91 82 81 85 80 82 77 68 72 88 73 85 84 85 86 80 77 78 81 81 82 86 86 85 84 89 87 88 87 88 90 95 96 93 92 93 89 89 83
79 94 96 95 89 93 90 82 86 85 82 76 75 76 83 95 84 88 87 86 86 85 86 87 86 85 87 91 90 90 86 86 88 90 89 89 88 88 94 95 87 91 86
91 97 96 92 90 92 93 94 95 91 87 86 81 79 76 75 82 86 93 95 90 88 91 92 92 91 92 96 94 92 90 95 98 95 94 89 79 79 84 80 86 83 85
91 95 94 95 96 90 92 95 96 95 92 89 90 88 82 76 79 84 92 95 95 94 90 94 94 93 95 96 96 96 95 78 94 94 98 90 80 80 78 74 77 74 74
94 93 94 93 94 92 93 92 94 96 94 93 93 91 85 79 77 79 82 86 91 90 91 92 96 95 95 97 89 59 34 34 42 43 100 86 85 83 82 75 79 73 72
91 94 95 94 94 95 95 93 96 96 96 98 93 93 89 82 79 80 83 86 85 85 87 89 93 96 97 90 85 39 29 28 28 37 96 90 86 82 88 79 80 73 70

GFSGL_925_rhum_006.txt.gz
RH
52 51 49 46 45 46 47 57 60 63 64 63 64 71 75 78 84 69 65 73 78 66 65 67 73 79 82 80 71 60 50 47 64 47 42 38 35 37 41 44 59 49 44
57 52 47 44 45 47 52 54 53 56 60 59 56 56 56 56 55 57 64 65 63 68 62 58 58 55 55 50 49 50 47 45 45 49 44 40 37 35 34 34 36 41 39
54 51 48 46 48 48 47 46 49 47 47 44 39 37 36 36 37 37 39 46 52 50 49 53 51 48 49 47 48 49 50 52 54 51 48 41 39 36 34 34 34 36 37
55 50 48 47 46 44 43 42 41 40 37 35 34 36 37 38 39 47 51 54 56 54 54 53 55 52 50 53 62 58 58 56 56 56 54 48 43 40 37 35 36 33 33
62 53 50 46 45 43 45 41 40 35 33 33 35 37 38 40 49 50 54 59 61 62 60 57 55 53 52 50 52 60 57 56 58 61 61 57 52 47 48 51 52 50 47
42 44 47 47 43 47 48 43 39 34 33 35 38 40 42 47 53 61 68 72 74 72 69 64 61 58 54 54 54 58 56 52 59 60 60 62 61 60 63 62 64 65 76
36 38 49 75 70 72 54 48 41 37 35 38 40 43 47 53 62 77 83 79 75 69 68 68 67 64 65 64 68 74 72 80 80 77 77 79 73 67 67 69 68 69 70
30 39 65 68 66 55 55 57 49 37 37 39 45 48 54 62 64 65 82 81 74 72 74 71 71 72 75 75 83 86 83 74 73 80 80 87 86 80 74 76 80 82 80
28 48 56 62 52 60 58 62 45 37 38 48 55 65 71 72 73 86 93 86 83 78 79 84 84 78 73 75 79 83 88 83 75 69 73 83 88 84 82 91 88 87 92
55 60 58 54 53 57 61 51 36 39 46 55 69 76 75 69 82 89 96 93 90 88 92 85 80 84 98 100 100 98 98 96 93 90 84 80 74 72 73 86 98 91 79
54 60 68 70 60 49 44 34 39 41 46 64 70 63 67 71 74 85 98 96 98 99 94 91 91 97 96 97 94 95 93 94 91 89 86 82 81 81 78 75 76 94 95
64 63 65 58 52 44 37 40 39 42 60 69 67 65 64 66 74 75 97 88 91 98 97 97 93 95 96 96 96 96 96 93 85 92 96 97 96 93 89 82 75 77 89
59 54 54 49 46 44 44 41 42 54 64 68 67 67 68 75 72 89 87 86 95 96 95 97 97 97 98 94 95 96 96 92 96 96 94 95 93 87 83 83 84 83 82
53 56 56 48 48 48 46 45 52 60 72 71 68 71 76 82 78 88 90 94 94 94 93 95 95 93 95 96 94 93 93 95 92 97 94 92 93 94 96 95 100 98 99
61 60 57 62 63 58 55 55 57 66 68 72 73 76 87 89 84 83 92 97 96 94 95 93 94 93 96 95 91 92 93 88 93 92 95 96 95 92 90 91 94 90 89
76 73 72 66 66 64 62 63 66 69 76 77 82 81 82 88 86 82 86 87 96 96 94 96 96 96 95 96 95 94 94 95 93 95 94 93 96 96 98 95 96 98 90
84 84 76 73 78 73 74 81 83 78 77 78 90 90 86 89 87 83 84 87 97 94 96 96 95 86 87 86 88 94 97 95 92 96 95 93 91 91 98 94 95 93 89
76 74 76 91 92 88 77 77 78 88 85 78 75 79 77 81 81 94 90 81 90 91 92 94 83 86 88 91 92 97 98 93 90 93 96 96 93 97 96 93 92 99 98
75 69 74 73 80 78 76 76 89 90 82 77 71 74 77 67 85 95 90 88 82 80 81 80 81 89 92 93 94 94 98 97 93 90 96 97 97 95 94 93 90 91 92
67 64 71 72 86 92 94 86 86 92 84 81 74 87 79 60 88 90 88 92 82 82 86 89 89 90 91 90 91 92 98 95 96 95 94 98 98 96 97 92 92 94 93
65 76 86 72 76 96 82 85 96 95 92 88 82 88 83 70 92 91 91 94 89 84 86 88 94 88 90 88 92 89 96 95 90 94 90 98 98 94 95 92 91 93 89
77 74 88 96 94 93 96 84 80 93 94 94 92 86 84 89 94 83 92 93 85 90 90 88 89 92 94 89 96 94 95 90 83 93 86 93 98 83 92 91 87 80 91
79 79 79 92 94 98 83 85 93 92 94 94 86 92 90 87 85 89 87 85 87 86 93 86 89 93 91 87 94 94 98 78 67 81 85 94 98 83 86 85 85 89 75
80 87 82 90 92 95 93 90 95 85 91 95 92 90 90 93 84 81 83 90 91 87 93 95 82 95 94 88 93 60 55 37 39 42 81 98 96 86 83 87 74 91 75
79 87 89 89 91 91 94 92 92 90 92 94 96 91 90 85 90 86 84 86 90 82 90 92 84 91 90 83 98 75 36 29 28 37 76 96 87 88 73 91 78 82 75
82 79 80 90 91 90 92 96 96 82 89 92 91 94 92 95 90 85 86 85 86 90 79 90 86 91 85 96 93 52 30 28 28 42 90 94 87 90 77 86 83 81 80

GFSGL_925_rhum_012.txt.gz
RH
47 48 52 54 52 49 48 51 52 52 50 46 51 44 36 37 38 39 40 46 54 54 52 50 50 52 52 49 44 45 63 76 82 68 63 57 53 49 43 40 39 58 66
44 51 54 57 55 49 51 54 56 58 49 45 40 35 34 35 37 39 42 49 52 52 55 59 60 60 59 57 54 54 67 59 70 71 63 57 53 49 46 43 43 41 55
28 33 43 41 40 60 61 58 64 63 75 83 46 34 33 37 39 43 50 51 55 62 65 63 60 56 58 60 62 69 71 66 64 70 66 58 55 52 44 42 48 52 53
26 30 43 54 64 73 63 65 68 81 69 68 41 34 36 42 45 51 53 59 64 62 61 62 61 59 64 73 75 77 82 80 76 76 73 67 61 54 50 58 62 57 56
28 34 47 50 54 65 70 77 78 72 72 53 37 40 44 47 53 58 64 67 67 71 77 72 68 69 70 70 80 87 94 96 96 88 79 71 65 60 60 63 66 62 51
30 40 48 53 64 65 81 82 80 83 52 70 46 47 52 55 63 68 71 77 84 88 82 79 76 75 77 82 88 88 86 97 97 98 93 80 70 65 65 66 70 76 82
41 52 49 55 61 64 77 81 86 79 75 53 52 55 64 66 71 74 81 91 95 90 87 83 86 82 86 89 84 91 86 82 85 81 96 96 90 79 74 70 75 81 81
48 48 54 59 64 68 76 79 84 81 69 56 63 66 59 68 78 96 98 95 94 91 81 80 91 96 94 94 96 97 95 92 92 86 81 77 78 82 82 82 85 88 92
48 56 57 61 63 63 63 67 69 69 57 63 65 64 67 75 83 97 94 91 84 77 88 92 93 96 98 95 95 97 93 86 83 91 99 98 96 97 93 99 98 97 88
54 55 58 62 64 64 64 61 47 49 65 64 62 61 65 64 69 87 83 96 89 98 94 93 94 96 100 98 97 98 100 90 90 87 84 78 74 73 68 69 70 91 92
55 56 59 58 56 53 48 50 51 66 63 64 64 63 65 67 68 83 84 90 97 98 97 97 95 100 96 95 97 96 97 97 96 98 94 86 83 83 84 84 81 82 96
54 56 60 57 55 55 52 53 59 61 65 68 67 67 72 70 68 86 88 86 90 97 100 98 98 97 100 98 96 96 99 96 97 96 96 95 96 96 96 96 94 96 96
58 62 64 64 65 64 58 58 65 67 69 72 70 76 75 74 69 83 89 93 97 97 98 97 96 99 100 96 98 96 94 94 94 94 96 96 97 98 98 98 97 100 99
62 67 68 73 70 70 68 64 69 72 75 75 76 81 81 76 74 92 95 91 96 89 84 86 84 84 89 94 93 96 96 96 97 97 96 96 95 94 96 97 97 99 98
70 72 67 70 76 75 71 74 79 74 77 80 79 84 85 79 81 98 88 83 90 82 81 84 92 88 96 96 91 95 94 96 96 96 96 97 95 96 96 97 97 98 97
95 93 78 72 77 83 83 89 81 73 80 81 82 87 87 83 95 89 88 85 79 82 81 94 97 95 98 100 100 97 95 98 97 96 96 96 96 97 97 93 92 95 97
100 97 93 76 77 88 88 77 76 75 74 74 77 86 93 85 88 89 90 85 81 76 83 95 98 97 100 100 100 100 100 99 95 96 96 96 97 97 97 98 96 95 95
98 98 90 84 78 76 81 76 72 87 88 86 80 81 87 90 83 85 84 79 79 75 77 90 100 100 91 100 100 99 97 82 85 93 95 96 96 98 97 99 100 97 95
99 95 84 78 79 73 79 77 90 81 84 88 85 88 90 94 78 73 77 88 85 82 81 80 90 100 91 89 96 93 91 61 72 85 95 96 95 96 97 99 97 88 81
93 92 84 77 78 80 78 84 92 87 87 86 84 92 94 96 86 83 84 90 90 84 86 87 80 91 91 83 92 92 84 58 51 78 92 95 95 95 96 98 97 92 88
94 97 88 91 92 92 90 78 89 93 80 84 91 96 87 93 91 95 92 87 86 82 87 89 89 79 86 84 83 80 59 48 42 48 82 95 95 93 95 85 94 82 80
92 92 81 75 78 77 81 90 89 82 84 88 88 94 87 88 95 98 95 90 85 85 88 88 92 85 82 89 81 88 84 46 35 37 68 95 94 88 90 81 90 80 72
92 94 83 76 79 73 78 89 97 95 80 90 83 87 94 96 97 95 91 87 86 87 92 89 90 92 80 84 82 92 95 60 39 40 68 94 94 92 86 86 88 84 75
95 86 80 73 79 74 76 89 94 94 96 85 85 87 90 92 92 93 92 89 87 87 88 86 86 88 87 79 78 89 93 45 33 35 85 93 90 91 79 85 82 82 78
97 91 87 82 73 75 78 83 96 91 87 93 90 82 90 99 97 92 97 95 91 92 91 88 89 86 90 81 74 89 85 38 31 38 80 91 90 82 81 81 80 75 76
100 100 96 99 86 86 84 74 83 92 92 95 81 82 86 91 83 87 86 89 91 91 93 90 91 85 92 84 88 93 90 42 34 34 67 83 91 70 73 86 67 77 79

GFSGL_925_rhum_015.txt.gz
RH
45 45 50 55 49 42 54 59 66 66 63 67 68 59 55 37 37 36 37 39 44 53 55 55 56 60 60 58 55 53 57 63 87 74 69 62 67 54 50 48 45 43 48
26 26 26 28 34 39 65 64 61 57 59 68 62 66 60 38 36 37 40 47 51 54 57 64 61 58 56 53 51 61 71 73 83 77 70 68 62 59 53 50 42 45 48
25 26 26 25 30 39 43 48 53 57 65 64 76 72 49 38 38 43 48 52 55 63 66 65 66 65 63 57 63 74 82 84 84 84 80 72 67 60 60 52 44 40 42
25 24 27 36 45 47 47 52 64 67 76 75 78 64 43 46 48 51 54 60 66 68 68 78 77 73 70 75 75 76 87 96 99 98 98 86 73 70 61 54 55 51 45
26 29 37 48 56 54 50 61 82 79 88 89 64 57 63 54 55 58 65 68 74 79 86 84 83 82 80 76 78 84 89 91 96 96 95 97 95 71 64 59 65 63 55
30 34 42 47 51 55 63 71 78 88 91 74 76 62 59 60 65 66 80 89 92 97 99 96 88 84 82 82 86 87 88 93 98 97 91 93 95 76 66 67 71 76 83
31 38 50 55 56 59 61 76 80 86 91 88 62 63 62 60 64 80 96 93 94 97 92 78 86 86 91 95 95 94 95 97 96 98 99 94 92 89 84 80 79 78 81
36 54 55 55 57 58 63 69 76 72 84 71 68 62 61 62 72 88 93 86 84 79 78 92 95 97 97 94 98 94 87 87 83 92 97 92 84 81 82 87 84 88 90
48 53 55 57 64 68 65 63 72 63 66 72 65 58 58 60 64 88 86 88 86 82 95 87 94 94 96 97 98 97 97 90 86 89 89 92 97 100 98 96 90 93 87
49 54 55 62 64 58 57 52 49 56 67 65 60 61 62 64 66 86 86 88 87 98 90 89 96 94 97 96 96 98 100 91 93 91 85 85 79 74 81 89 83 96 89
52 55 58 61 58 56 56 54 55 68 66 63 64 65 70 70 70 88 87 87 92 98 98 96 97 98 97 98 98 96 98 98 97 98 98 95 93 93 83 74 71 74 92
62 61 61 62 62 62 57 56 67 64 65 68 69 72 76 74 70 80 94 90 89 97 92 94 97 92 98 97 97 98 98 95 95 94 95 96 96 96 97 97 97 98 97
68 69 67 69 69 68 64 64 67 69 70 73 74 80 79 77 72 86 95 95 94 87 88 95 93 92 95 88 100 100 93 95 96 95 96 96 97 96 96 97 97 98 100
66 71 75 75 69 72 74 68 70 72 75 78 78 82 84 79 76 91 96 89 81 88 77 76 79 75 80 85 84 92 92 97 97 98 97 96 95 95 96 97 96 97 98
76 85 88 98 78 74 74 73 83 83 77 81 83 84 87 84 81 98 88 87 81 88 74 76 84 84 89 96 85 88 89 91 98 97 98 96 96 96 96 96 97 97 97
82 86 99 98 94 82 82 88 90 81 84 88 86 84 87 87 90 89 89 87 84 75 77 91 94 92 95 100 99 96 91 86 94 96 96 96 96 96 96 96 96 97 96
92 89 98 98 97 94 90 85 76 75 82 82 78 80 88 89 94 87 90 84 79 74 76 88 94 95 91 100 100 100 96 68 81 95 96 96 96 96 96 96 96 95 96
91 90 99 98 98 98 90 85 80 74 82 80 82 81 88 87 90 87 88 77 80 78 80 81 92 92 88 93 99 98 87 55 71 93 95 95 95 97 96 96 96 92 84
100 94 99 96 94 94 91 82 86 90 82 88 88 87 89 92 93 83 82 81 89 84 85 87 81 89 90 80 90 84 76 51 56 85 95 95 95 95 95 96 94 94 84
96 99 99 95 84 83 95 92 92 97 86 84 84 84 92 94 92 91 93 91 89 86 87 86 90 82 84 81 70 71 54 42 38 51 90 93 93 91 97 94 96 86 83
100 98 98 94 81 87 90 98 97 95 84 74 80 88 94 98 90 95 95 95 94 87 86 88 90 91 82 85 75 72 78 56 40 38 75 94 93 85 94 86 95 80 72
91 98 97 88 80 82 77 79 88 98 94 88 79 85 87 95 91 95 95 92 91 88 89 93 92 93 88 82 81 78 86 64 37 36 53 88 90 85 89 86 89 82 74
90 99 98 93 90 80 82 78 80 88 96 95 86 84 83 92 96 97 90 89 88 86 89 93 90 88 92 82 79 79 88 70 36 34 55 87 86 86 81 86 85 85 78
100 100 99 97 88 76 78 80 76 84 93 90 88 88 86 85 88 87 92 92 93 86 88 91 91 87 89 89 80 76 86 66 36 33 65 89 92 83 82 81 79 77 76
100 99 99 96 89 83 88 80 78 83 86 90 86 91 93 85 85 88 87 86 89 90 88 91 92 91 87 90 85 81 91 85 42 38 52 77 89 85 74 80 69 76 76
100 99 98 97 92 87 94 95 93 92 80 80 90 90 94 83 84 86 83 85 87 90 90 92 93 91 87 90 88 93 94 87 59 50 51 58 80 81 64 91 79 81 85

GFSGL_925_rhum_018.txt.gz
RH
28 26 24 23 24 22 26 29 33 42 56 61 62 67 68 69 62 46 38 38 43 51 57 60 57 61 62 60 59 56 57 67 80 67 69 71 67 50 60 58 50 47 45
26 25 23 24 28 34 36 36 40 40 49 63 69 70 65 73 61 43 42 47 54 60 59 64 66 66 67 66 66 64 70 75 84 86 84 84 80 68 66 62 60 56 47
25 24 25 29 35 36 38 40 40 58 69 70 70 74 81 62 44 48 53 54 58 64 67 69 72 82 81 78 74 79 82 83 87 96 93 90 91 86 71 65 61 54 49
25 27 29 32 38 44 47 48 51 66 77 80 88 93 59 57 58 57 58 62 67 68 74 84 90 89 87 85 89 90 83 86 90 87 85 96 97 82 82 74 64 56 52
27 29 30 39 48 52 56 54 59 72 84 86 90 83 72 58 59 63 67 66 80 89 91 90 93 95 87 83 82 87 95 97 96 92 88 84 84 90 95 95 72 61 59
29 31 37 50 50 54 54 55 68 79 86 95 92 79 61 61 63 67 75 82 84 85 85 81 74 84 87 87 88 88 92 98 97 97 88 87 84 82 94 99 89 78 72
32 33 39 51 55 54 60 68 70 74 79 85 79 67 62 63 63 64 64 72 79 80 82 80 92 85 89 96 95 95 93 94 93 96 97 94 95 88 89 98 96 91 82
35 36 49 55 57 59 71 65 57 74 85 90 73 65 62 59 56 62 87 87 86 79 85 90 95 97 95 92 98 96 92 90 96 97 95 93 96 93 99 94 88 94 93
41 48 55 56 60 66 62 59 58 73 62 69 66 63 59 58 59 68 87 86 81 80 89 87 94 93 94 95 96 98 93 95 95 93 95 95 92 95 94 100 100 100 85
50 54 57 59 61 62 59 56 57 59 65 69 65 62 62 64 62 80 87 88 88 96 92 94 92 92 94 95 97 94 98 94 98 96 97 91 91 86 79 76 92 98 98
61 62 62 66 64 62 62 59 59 63 75 66 64 65 67 70 66 79 91 91 92 99 89 94 95 97 89 91 95 95 97 96 98 98 98 96 96 94 90 84 70 70 90
66 69 63 72 67 67 68 64 64 74 68 67 69 69 74 76 70 77 96 93 90 91 81 92 95 89 87 91 94 98 99 91 93 94 92 97 98 97 98 97 96 96 94
76 68 70 74 73 76 73 68 70 72 70 71 73 75 80 81 74 82 93 98 86 89 82 91 93 88 79 78 95 100 87 94 98 98 99 99 100 97 96 94 95 99 99
80 71 77 84 82 90 75 77 73 74 75 82 78 80 84 87 78 83 96 94 82 84 76 74 74 69 70 78 77 80 81 91 98 98 98 95 96 96 96 97 97 97 97
93 90 74 87 100 95 75 74 74 81 90 84 83 85 86 88 81 89 92 89 84 86 60 72 76 77 75 89 82 85 76 69 91 95 96 96 96 96 96 96 96 97 97
92 93 91 95 99 97 88 81 85 90 84 89 92 88 85 88 84 96 88 89 85 75 57 81 87 86 82 96 98 89 67 59 80 96 95 97 98 99 99 95 95 97 99
96 94 96 97 99 98 96 94 93 85 75 82 85 80 83 87 89 94 88 81 77 74 76 74 85 91 89 86 95 89 86 51 76 95 96 96 96 94 96 100 96 90 96
90 94 100 96 99 99 98 98 97 95 87 80 75 83 81 97 99 94 92 84 79 78 82 84 81 81 90 86 90 90 67 41 50 87 93 94 96 97 96 98 97 98 89
92 97 95 99 99 98 94 98 92 91 94 93 78 81 83 90 99 96 92 88 89 83 81 85 87 86 79 84 78 77 67 50 41 54 93 94 92 93 94 94 94 82 81
98 99 99 99 98 95 82 88 96 97 98 96 83 78 84 94 96 89 95 96 95 90 85 85 85 89 87 79 78 74 76 58 38 37 65 91 91 87 96 92 96 91 78
82 99 98 99 99 95 84 90 96 100 99 93 76 70 83 96 94 92 91 95 94 93 89 86 89 90 90 85 79 73 79 75 48 39 46 78 87 84 85 89 92 87 79
92 96 95 100 98 97 80 80 84 83 86 92 92 91 86 89 88 91 91 92 89 90 88 88 90 91 88 89 82 75 77 76 47 33 36 76 80 80 78 85 84 87 81
87 97 100 99 98 98 90 88 84 83 86 85 89 93 88 85 82 88 89 88 88 87 84 88 89 90 87 89 88 76 75 80 57 34 34 75 85 79 79 81 83 79 79
82 98 99 98 98 98 98 89 82 81 82 81 87 93 87 84 85 82 84 82 88 88 88 87 89 88 87 91 90 86 76 86 82 39 38 65 81 86 72 77 71 73 76
98 100 100 99 98 97 97 94 88 88 92 90 89 89 85 86 89 88 81 84 87 85 87 89 88 90 88 91 87 90 86 93 88 54 47 58 72 87 72 81 83 73 80
99 98 99 100 99 98 98 98 97 96 97 96 97 96 92 85 88 93 83 83 82 82 82 88 91 90 90 91 87 90 91 93 91 69 58 55 57 75 76 72 91 81 81

GFSGL_925_rhum_021.txt.gz
RH
29 26 23 23 24 26 30 32 35 38 47 59 78 82 81 72 74 82 72 62 52 64 69 70 68 69 69 68 67 63 60 58 56 52 50 49 54 58 58 59 54 56 60
26 25 24 25 26 28 33 39 43 44 48 68 75 82 83 74 87 73 60 60 63 67 67 69 71 70 70 69 68 65 64 62 61 56 52 53 60 60 61 64 61 59 52
26 25 25 26 29 38 47 48 47 49 69 76 83 86 98 97 64 55 55 56 68 71 74 75 75 78 72 67 66 65 65 68 66 64 63 59 56 55 74 65 62 62 58
25 25 26 30 39 47 50 50 52 59 82 89 93 95 88 75 69 64 59 73 78 79 84 83 81 76 71 68 72 75 72 83 79 76 69 62 62 60 64 70 65 56 55
26 28 31 34 44 51 51 52 58 64 78 85 94 88 86 86 72 79 83 82 80 76 72 67 67 75 84 83 79 77 80 80 76 78 66 56 54 55 58 60 71 73 79
28 31 34 37 51 53 51 56 67 74 82 81 88 80 78 80 66 60 63 75 72 66 65 65 68 73 73 84 86 88 88 91 91 76 68 76 71 66 68 64 87 80 62
33 35 37 44 53 52 56 68 76 73 77 93 88 74 70 76 58 57 62 76 72 71 71 72 73 72 81 79 78 85 93 88 87 89 86 71 65 61 69 80 76 84 76
37 40 44 51 55 57 62 73 70 70 82 90 79 73 69 63 57 57 55 74 74 73 75 78 75 77 78 84 94 85 81 70 78 86 89 86 80 81 78 88 91 85 76
42 47 53 58 66 72 73 69 67 71 80 72 77 72 66 63 60 60 68 84 83 82 82 79 80 79 88 94 86 87 76 70 80 81 90 92 94 96 96 86 86 80 70
53 58 62 69 71 75 72 68 67 65 71 79 76 69 63 64 64 61 82 87 89 84 81 74 83 90 94 86 79 85 84 81 77 81 80 84 92 93 96 90 74 88 72
64 64 72 68 73 76 69 68 67 72 78 81 71 67 66 69 71 65 84 90 88 85 78 71 78 94 83 83 87 90 95 94 91 88 82 75 76 84 90 97 83 74 67
56 72 75 66 74 75 78 75 71 77 84 77 68 72 72 72 74 72 80 96 92 88 87 79 86 89 88 92 91 94 96 98 95 92 88 82 83 85 86 90 98 99 88
71 82 77 77 82 83 83 80 76 79 81 81 80 83 80 88 89 74 80 86 97 87 93 81 88 87 86 85 92 97 93 93 95 90 88 89 94 99 99 98 98 100 100
82 86 89 83 75 85 94 86 77 83 83 79 86 84 82 88 92 88 94 96 94 88 89 77 74 76 71 86 85 86 85 89 99 96 95 95 99 98 98 99 98 99 98
89 88 89 91 84 93 99 83 80 80 81 88 86 89 92 92 91 83 94 93 89 88 74 82 79 80 70 73 76 78 72 74 89 99 96 95 93 93 92 98 98 98 95
95 91 91 95 95 99 97 87 80 80 87 82 79 89 94 86 87 87 96 92 82 79 77 78 78 86 81 71 77 76 73 69 83 99 98 96 96 95 93 89 91 94 92
94 96 96 100 100 100 100 99 91 89 86 84 79 80 86 82 85 89 97 92 86 80 81 82 90 86 84 74 73 74 69 72 80 98 100 100 100 96 92 88 87 84 81
79 88 99 100 100 100 100 100 100 100 96 89 83 80 79 82 96 99 98 95 93 91 87 83 88 90 86 76 74 76 75 76 73 75 99 100 100 98 92 90 88 88 79
93 100 99 100 100 100 100 99 100 100 100 94 94 93 78 79 86 98 100 99 95 90 91 86 90 92 90 88 89 93 95 90 75 79 86 100 100 96 91 93 93 96 85
98 99 87 99 100 100 100 100 97 99 97 96 97 94 90 78 97 99 100 100 100 100 99 96 92 94 97 96 97 98 92 91 85 76 80 94 100 99 92 96 95 91 82
92 93 86 99 97 99 100 100 94 94 100 97 93 98 76 80 90 94 98 100 90 98 100 100 100 99 98 96 96 95 93 94 95 84 78 86 100 96 92 94 94 91 86
74 79 93 100 100 100 100 100 97 91 94 95 90 96 85 93 98 100 100 97 87 86 90 94 98 99 98 98 99 100 96 94 97 91 80 75 97 93 92 90 90 88 86
99 95 98 100 100 100 100 100 100 99 100 100 100 99 99 99 100 97 96 76 79 87 90 87 85 83 84 88 86 84 91 94 100 80 48 75 96 93 92 88 87 82 83
100 100 100 100 100 100 100 100 100 97 94 98 100 100 98 98 100 96 88 79 78 81 88 87 88 83 84 88 87 87 82 77 83 88 54 54 95 96 93 85 89 90 87
100 100 100 100 99 100 100 100 99 100 100 100 100 100 100 99 99 98 89 82 83 80 82 87 88 85 84 86 87 88 85 83 87 89 68 61 77 70 97 88 96 89 92
98 98 99 99 98 98 100 100 99 99 99 99 100 100 99 98 99 99 97 92 86 88 81 86 84 85 86 86 86 89 88 85 89 89 73 61 66 93 94 93 95 94 91

GFSGL_925_rhum_024.txt.gz
RH
44 38 36 32 34 36 36 36 40 46 46 48 53 56 56 55 58 64 68 67 58 50 53 58 54 53 50 46 46 45 44 42 43 42 40 41 44 45 47 53 53 49 46
38 34 32 33 33 34 35 40 46 50 50 51 58 59 58 62 79 92 70 53 54 54 55 56 56 53 50 49 47 44 44 45 52 52 48 48 50 50 51 55 49 52 48
32 29 29 32 34 35 39 46 51 53 51 55 58 59 60 71 85 80 69 63 59 61 62 62 58 57 54 49 49 48 48 57 60 61 58 56 55 55 53 54 57 61 51
30 27 28 34 37 40 45 51 53 54 55 56 60 63 68 70 72 68 63 68 65 62 62 60 56 51 52 57 57 54 56 62 62 62 62 58 59 49 47 55 55 56 60
30 29 32 38 41 44 53 56 54 56 58 58 62 67 70 74 73 77 67 64 60 56 51 49 47 57 73 76 72 68 69 70 74 66 69 63 57 55 61 55 55 50 53
30 33 36 40 43 46 54 54 51 55 56 58 61 70 70 66 71 59 59 59 57 50 48 47 50 56 59 71 80 80 78 74 76 81 78 66 64 54 56 54 59 62 61
33 36 38 43 44 48 48 48 50 54 59 59 66 70 66 71 63 57 55 57 55 52 52 53 54 53 60 64 70 80 88 89 95 78 72 80 83 65 71 62 58 58 71
36 38 37 43 48 47 48 50 53 56 57 58 63 65 68 66 62 58 56 60 60 59 60 60 58 56 60 80 80 75 65 60 50 63 72 71 69 71 74 77 76 64 64
35 35 41 50 52 47 46 51 56 58 57 60 62 66 67 65 65 60 61 68 70 70 64 62 63 61 77 86 76 67 61 55 69 69 75 78 83 94 88 78 73 60 68
38 43 50 51 50 50 50 57 60 60 58 59 62 68 70 69 74 63 64 75 80 72 66 63 59 76 88 83 77 74 78 75 67 70 70 67 61 65 90 90 77 65 59
50 53 49 51 53 56 59 62 61 60 62 68 78 74 73 74 74 71 65 87 81 76 69 65 61 80 82 84 86 79 86 86 78 80 76 72 68 73 70 74 96 74 65
52 50 54 57 60 60 62 63 63 64 67 74 90 91 75 84 83 80 73 72 85 85 79 73 77 76 85 85 86 90 90 93 79 87 81 80 79 85 87 88 83 79 83
57 57 58 62 64 60 64 66 71 65 66 68 68 70 69 80 79 87 79 75 88 91 84 82 79 84 77 67 71 85 83 72 78 83 82 83 88 92 94 98 98 98 86
62 60 60 64 62 63 63 76 76 68 68 68 66 65 66 70 72 76 81 88 92 86 80 77 78 70 70 65 66 64 66 66 79 88 87 85 84 87 88 93 97 98 96
60 65 68 68 66 64 64 73 73 70 71 70 74 78 79 88 88 84 80 83 85 81 80 81 70 68 62 56 59 62 63 59 60 82 86 88 81 80 84 90 89 91 94
74 72 70 73 68 73 73 70 76 76 74 74 78 77 87 90 86 84 85 94 94 87 80 72 73 77 74 64 61 61 61 61 58 71 81 82 87 86 83 85 87 88 89
75 74 73 72 74 76 83 87 86 77 91 80 86 81 76 77 89 85 88 98 94 91 83 72 75 77 77 65 60 60 62 65 72 62 70 74 76 79 88 84 82 83 80
83 77 81 78 83 90 90 90 88 89 89 86 96 84 78 77 77 88 89 98 88 93 88 76 76 76 75 65 60 61 65 75 75 70 71 77 79 74 69 72 84 86 78
77 78 87 93 89 94 100 99 98 99 99 82 76 90 91 84 76 84 94 97 84 80 72 70 73 77 76 73 76 83 82 80 84 80 76 77 82 78 70 67 71 74 70
74 76 81 79 81 94 95 86 94 98 98 84 78 78 80 98 95 90 93 94 93 89 80 76 74 75 80 83 85 89 87 80 78 73 73 77 81 80 74 72 70 68 63
71 70 73 81 74 76 84 90 93 98 96 82 80 84 85 84 86 82 90 97 96 90 86 85 82 85 87 90 88 88 86 86 84 81 78 73 81 81 75 74 71 67 64
81 86 92 95 84 86 92 94 99 98 95 85 80 83 82 98 95 88 86 90 92 91 90 89 90 84 86 86 86 90 90 89 90 89 90 79 81 83 79 73 73 72 66
92 98 100 98 94 91 95 98 98 98 99 98 91 88 87 94 96 93 93 92 92 93 91 97 99 99 95 99 100 98 94 88 88 98 98 86 86 86 87 78 71 71 72
83 97 99 98 99 94 95 97 98 98 98 98 98 95 97 94 94 96 95 94 95 93 92 100 100 100 99 100 100 100 100 100 100 100 100 91 89 89 86 77 72 75 74
98 100 99 100 98 96 92 92 94 94 91 96 97 98 98 98 99 99 98 98 97 97 99 100 100 100 99 100 99 100 100 89 84 99 100 99 97 97 92 82 80 79 79
98 97 95 97 98 97 97 96 95 93 93 93 94 95 96 97 96 97 98 98 98 98 97 97 99 89 98 92 84 86 84 84 82 81 99 96 93 87 84 82 80 79 77

GFSGL_925_rhum_027.txt.gz
RH
42 39 36 40 32 34 36 34 34 39 42 43 42 44 45 44 44 53 74 76 70 68 54 53 62 61 58 55 48 38 39 38 40 38 37 41 46 49 50 51 49 51 48
41 41 43 33 30 32 33 32 36 41 45 45 42 45 44 43 52 69 65 78 80 68 61 60 58 56 54 43 40 39 40 39 40 41 44 50 54 55 53 51 51 49 50
45 44 31 30 31 32 34 33 38 42 44 45 44 45 45 48 50 62 68 67 63 64 64 63 57 51 46 44 46 48 45 43 46 55 60 58 53 50 53 53 51 46 52
43 33 26 27 32 36 34 35 39 44 46 45 46 46 49 54 54 58 59 65 69 64 61 53 47 46 46 56 55 55 52 54 57 60 57 60 56 59 59 56 63 58 51
38 30 26 30 36 37 34 39 44 48 46 47 45 45 55 58 60 68 64 60 59 54 49 44 42 46 50 61 64 61 64 65 65 65 66 64 69 58 54 53 60 52 50
35 31 30 34 37 34 36 44 46 42 43 45 46 48 60 59 62 61 56 62 54 46 44 44 45 46 47 54 63 76 78 70 77 83 69 58 54 58 81 82 68 61 53
32 30 32 36 36 36 37 38 38 40 46 48 48 53 63 65 72 62 58 62 55 50 50 50 50 46 51 56 62 66 71 63 66 71 78 77 85 66 64 72 64 72 66
31 31 34 32 32 36 38 38 38 42 46 47 48 57 61 67 68 64 58 65 55 56 57 56 53 53 56 76 75 66 58 52 49 54 62 67 66 64 64 68 69 60 62
33 32 30 31 39 40 38 38 40 44 48 50 49 58 65 69 66 64 60 64 63 63 62 56 59 56 61 71 75 70 64 56 53 54 61 71 77 75 73 80 89 73 76
31 32 33 40 41 39 40 42 46 49 49 50 50 55 61 67 72 70 65 73 74 70 63 58 58 63 70 83 80 76 73 66 59 62 70 74 68 68 76 90 91 94 81
36 41 45 39 39 43 46 49 51 51 54 61 67 70 66 72 72 79 73 76 78 76 70 62 60 75 74 80 84 81 84 83 76 79 80 79 76 73 69 75 82 93 93
51 54 42 41 46 48 51 54 54 54 59 66 74 84 78 79 78 81 79 73 77 86 81 72 78 76 71 83 78 72 68 86 74 74 82 76 75 83 84 82 96 97 93
56 50 47 48 51 52 53 54 55 61 66 72 74 88 79 75 86 91 83 80 76 93 84 81 77 85 76 70 60 64 72 66 65 69 81 83 84 84 84 86 86 91 97
56 54 53 53 54 58 59 51 58 75 77 77 76 74 75 74 71 84 95 98 95 95 91 85 82 73 68 61 66 61 65 65 61 62 76 81 87 83 80 84 92 90 96
54 54 58 66 67 60 56 55 58 69 76 75 79 81 86 86 77 82 93 92 94 94 83 83 74 67 66 62 60 61 63 62 59 60 66 68 75 81 79 80 88 88 86
65 69 69 70 70 66 63 70 66 68 70 71 70 66 73 88 82 86 85 76 77 90 85 76 71 78 80 68 62 61 63 66 66 69 65 64 65 66 75 83 83 84 86
81 70 71 67 64 66 73 80 79 72 74 83 82 74 73 77 82 89 92 88 98 96 90 74 72 80 78 69 61 59 59 64 78 71 71 74 73 69 69 66 76 80 80
75 73 73 67 75 78 83 86 86 80 82 84 95 91 90 87 82 77 91 100 97 98 85 74 70 74 76 67 62 62 67 75 77 74 76 82 85 79 69 62 61 70 70
71 68 71 80 84 84 82 88 85 84 82 83 89 85 92 89 85 83 84 92 88 89 87 82 74 70 72 75 74 82 87 86 85 89 82 83 84 88 77 67 67 65 63
62 66 70 77 77 75 75 76 86 84 80 86 91 87 81 95 100 98 90 88 92 92 91 84 73 65 72 80 87 90 87 90 88 87 82 85 83 83 87 75 71 66 60
68 74 77 79 80 82 84 81 82 84 87 87 90 95 84 84 88 94 91 91 96 90 88 89 90 83 87 91 90 88 88 85 84 87 88 88 83 85 87 81 72 68 62
78 87 86 87 87 86 90 93 88 83 84 87 89 98 88 78 88 86 88 90 88 88 89 94 90 90 89 88 88 93 91 91 89 87 88 90 83 84 88 85 80 71 68
85 91 93 85 85 85 88 96 92 90 94 93 94 97 99 97 96 95 92 88 88 96 96 94 95 91 91 91 93 90 92 92 90 92 90 92 85 87 89 86 81 74 71
92 92 91 88 93 95 94 94 96 96 94 96 95 98 98 98 98 97 97 96 97 97 97 97 97 95 93 90 95 90 93 93 98 94 98 96 88 86 91 88 78 82 77
99 94 96 95 96 98 99 98 98 96 95 95 94 94 95 95 96 98 92 95 99 100 99 99 98 97 96 93 98 90 95 94 97 96 99 98 94 92 92 87 83 79 85
100 99 99 98 96 96 98 99 98 98 99 97 95 95 96 97 96 94 90 91 91 89 90 99 98 97 97 96 97 97 96 98 91 84 90 94 91 91 92 88 83 80 78

GFSGL_925_rhum_030.txt.gz
RH
44 47 43 35 36 39 40 37 36 35 40 42 44 43 42 44 44 51 56 54 63 74 85 87 91 66 63 60 58 50 46 47 54 48 45 44 49 54 56 57 55 53 52
45 43 41 38 40 38 34 34 33 36 40 44 45 43 43 44 47 49 62 66 64 72 69 67 64 61 57 51 47 51 54 52 51 54 54 58 59 57 56 56 55 58 57
42 42 43 42 39 32 33 35 34 36 41 44 46 45 45 46 50 53 60 64 68 70 72 67 62 53 47 48 55 54 56 57 57 62 62 63 63 59 58 62 63 62 60
44 44 46 41 34 32 36 37 35 38 42 46 46 46 47 49 56 57 59 62 68 61 59 58 50 45 47 49 51 57 60 63 67 70 70 67 64 65 65 62 68 68 67
47 46 38 37 31 36 38 35 37 42 47 48 45 46 46 54 59 61 58 59 61 57 52 46 44 44 45 47 51 57 68 75 73 70 71 75 71 62 60 81 95 76 70
47 42 37 49 34 38 36 36 40 45 45 42 46 47 48 58 59 61 57 56 58 57 50 49 48 49 45 50 63 66 71 71 75 86 85 82 76 80 90 73 73 74 73
47 41 46 34 37 37 36 36 38 41 40 43 47 48 52 63 66 67 59 58 54 59 54 55 55 52 54 55 58 62 57 68 61 57 68 88 85 69 70 71 70 74 82
45 40 36 34 34 33 37 42 45 38 41 46 48 50 56 65 67 73 62 58 61 60 59 60 58 56 58 58 62 59 73 69 62 59 60 61 64 70 77 82 82 82 84
38 39 44 33 34 38 45 44 41 44 46 48 50 51 57 64 69 72 64 62 68 68 67 65 60 59 59 61 64 72 81 74 70 64 64 70 73 75 75 87 97 96 90
44 44 50 45 42 50 46 46 49 49 51 50 54 55 59 67 80 71 69 67 71 77 73 68 62 62 65 75 69 80 86 86 77 65 78 85 78 85 82 89 96 98 96
58 56 50 56 64 51 52 50 53 54 54 54 60 64 69 70 76 76 75 74 70 81 82 75 70 80 80 72 73 79 83 79 69 85 80 81 86 83 77 72 83 94 98
60 69 70 61 60 54 54 56 54 54 58 65 70 73 80 75 78 79 75 74 73 70 74 83 81 82 70 71 72 68 70 67 80 70 70 83 84 88 86 83 84 85 91
68 70 70 66 60 55 54 56 55 58 58 67 76 85 88 84 78 83 83 84 79 73 73 79 85 81 84 74 70 62 64 72 74 65 69 72 78 84 83 85 79 78 83
80 82 70 59 58 59 60 61 60 60 71 74 81 83 83 86 90 91 95 90 87 81 76 94 95 74 75 72 67 65 64 67 67 65 64 70 70 69 76 82 87 92 90
72 63 61 66 68 74 69 62 61 63 65 69 76 80 88 94 84 77 82 96 96 98 100 90 74 78 76 70 68 64 64 67 69 71 70 71 73 73 76 74 87 88 89
66 67 73 75 73 72 69 67 67 68 66 68 70 71 71 74 78 82 75 80 87 84 81 85 85 81 82 78 73 69 62 64 70 67 81 78 85 83 79 79 76 85 86
73 78 76 73 70 69 73 72 80 81 83 81 80 80 79 77 72 77 79 78 84 91 96 88 85 84 80 78 73 68 62 63 70 77 82 77 89 82 86 82 74 76 76
72 76 71 72 74 78 76 84 81 87 89 85 81 81 86 90 86 81 85 83 100 99 100 96 88 84 75 78 72 68 68 77 76 87 79 79 90 82 90 87 73 82 77
66 71 72 70 72 77 75 71 76 78 88 93 95 81 81 94 93 91 90 95 98 96 97 100 89 81 82 81 72 72 82 79 80 78 77 92 82 84 85 93 80 72 74
62 63 64 64 70 81 87 91 86 80 81 84 85 85 84 98 99 95 93 95 100 96 91 94 95 80 83 81 82 85 87 81 83 92 93 91 85 90 78 92 88 77 72
68 69 70 75 78 90 95 88 89 91 98 96 84 82 86 98 98 96 100 100 98 97 92 90 93 84 67 81 85 87 81 88 86 87 86 83 91 78 83 92 85 88 72
85 85 83 83 95 97 90 90 90 92 96 99 94 85 87 95 99 96 82 82 94 98 97 94 95 95 89 77 88 88 84 85 83 87 84 89 91 80 88 90 89 84 82
98 100 99 93 82 97 92 91 92 92 93 98 98 97 95 97 99 98 97 94 95 97 94 95 97 98 97 95 87 85 89 86 88 84 87 91 83 85 95 77 92 84 81
81 90 93 98 99 99 96 94 97 96 96 99 98 95 93 97 98 99 99 98 98 98 98 98 98 97 97 97 96 93 86 88 84 95 94 88 84 89 92 94 89 88 88
86 90 95 94 97 99 98 98 96 99 98 97 97 96 95 95 96 97 98 98 96 92 98 100 100 100 99 98 97 96 93 92 88 96 91 84 86 92 95 78 88 86 83
99 99 98 98 95 94 99 98 96 95 94 97 95 97 97 96 94 95 95 92 91 94 97 99 95 97 100 100 98 98 97 96 96 94 91 90 86 86 85 90 95 87 81

GFSGL_925_rhum_033.txt.gz
RH
41 44 43 39 33 33 36 37 39 40 37 40 42 44 44 42 44 51 52 53 58 60 70 74 75 85 88 76 52 49 53 54 62 62 60 60 59 59 54 57 56 57 60
45 47 46 38 34 37 39 42 47 38 36 39 43 46 44 44 47 49 53 60 60 69 71 71 65 62 54 49 49 52 53 50 59 69 67 66 65 60 57 59 62 61 64
46 46 40 36 36 40 43 46 40 35 38 42 47 47 45 45 50 52 56 61 64 68 67 62 61 57 47 48 49 48 47 51 59 66 72 71 69 64 65 66 62 68 64
46 42 40 42 42 46 57 42 41 37 40 46 47 47 45 46 53 56 59 60 65 62 59 54 50 47 46 46 47 48 54 62 67 72 77 74 74 76 75 68 86 83 75
42 42 44 44 50 56 46 48 49 41 43 46 47 46 44 50 53 58 59 60 53 56 56 52 49 49 49 48 51 60 68 69 72 77 81 80 82 82 85 94 80 72 69
44 46 45 43 54 51 55 53 38 39 42 45 44 43 47 51 55 59 60 58 54 53 48 56 53 53 52 55 62 66 70 66 72 80 84 84 82 96 80 73 76 79 77
50 48 48 49 56 42 46 52 45 39 41 44 44 45 50 53 59 62 64 62 55 51 56 59 58 59 57 57 57 56 56 42 68 70 69 76 72 68 70 80 84 90 91
49 45 45 43 42 50 56 46 45 56 60 58 48 49 51 58 64 67 70 63 58 57 61 64 64 61 60 60 59 61 60 31 52 76 77 69 74 81 84 86 91 95 93
46 46 46 49 56 56 52 47 55 65 52 52 52 52 54 57 64 67 70 67 63 62 65 68 69 64 62 63 64 72 47 37 60 77 68 71 75 90 88 97 95 97 91
59 62 66 68 58 56 51 49 59 58 61 58 60 56 56 60 65 70 74 71 68 68 64 76 72 67 65 72 78 70 52 56 74 71 72 64 71 80 81 78 86 98 96
75 79 75 75 70 62 64 58 58 57 56 56 57 66 66 66 68 73 73 72 74 71 69 75 73 78 82 82 75 62 61 70 77 75 76 63 73 71 74 74 77 92 99
73 73 74 74 76 75 71 64 59 59 56 56 60 65 72 74 76 76 77 78 76 72 68 68 68 91 83 69 67 65 65 69 68 78 73 66 71 72 72 75 73 74 80
73 74 78 79 72 70 65 60 59 58 60 62 61 62 80 81 83 83 78 78 80 82 77 69 72 78 76 68 70 69 73 70 70 78 70 67 64 71 71 67 72 77 74
76 74 70 70 68 67 64 61 68 66 64 68 68 69 76 82 84 96 95 96 96 94 84 75 80 82 78 72 78 70 67 65 67 71 71 67 76 80 74 68 79 89 88
72 73 67 64 66 67 68 72 69 67 66 66 68 70 73 77 80 83 97 95 89 87 89 88 100 94 69 73 79 69 70 66 67 72 73 76 81 86 73 74 80 86 93
67 66 67 69 66 71 71 72 72 67 68 74 80 78 76 75 81 84 90 87 86 99 100 98 96 82 77 76 84 77 68 68 66 71 72 84 78 88 80 80 81 75 91
64 62 58 64 71 71 72 73 75 64 67 63 62 73 77 80 82 94 98 98 92 94 96 91 89 84 74 78 88 80 69 69 66 75 77 84 74 90 78 87 90 77 84
60 63 67 68 70 72 72 77 74 68 70 68 62 66 80 80 78 86 96 98 98 99 99 96 91 85 76 76 83 79 73 70 73 71 68 71 77 94 80 84 94 87 79
68 68 67 68 70 71 74 89 87 83 84 85 85 79 73 78 80 82 96 98 98 100 97 98 93 86 83 77 74 79 78 74 76 71 69 80 92 92 89 72 95 92 80
96 93 86 84 84 87 88 87 93 92 98 100 96 89 84 91 96 99 100 98 99 98 95 93 91 89 86 82 86 93 97 79 81 73 76 93 93 90 88 74 96 94 89
92 99 95 100 100 99 96 97 100 100 98 98 97 86 95 95 94 96 98 98 97 97 94 88 85 86 89 89 86 78 94 91 84 79 88 91 85 83 79 84 97 91 86
87 83 81 82 84 89 97 100 100 100 96 94 93 88 90 93 95 97 99 100 97 94 90 92 96 89 86 85 85 82 87 90 83 72 76 80 84 87 76 85 93 90 89
78 92 96 94 92 93 93 92 95 97 98 93 91 93 96 99 97 100 99 100 98 97 97 97 98 99 95 96 96 94 94 88 84 74 76 83 84 87 79 91 80 93 93
100 99 99 97 98 98 96 94 97 98 98 96 96 98 99 98 98 98 99 98 98 99 98 98 98 98 98 98 98 98 97 96 93 86 78 84 88 88 79 87 94 90 90
96 100 99 100 100 98 98 98 97 98 98 97 97 97 98 96 94 93 93 93 91 91 91 96 98 99 98 100 100 100 98 98 97 96 91 88 92 88 83 93 91 83 84
98 100 99 100 100 100 99 97 98 97 97 97 97 98 93 93 96 96 94 91 89 85 82 80 75 73 94 98 90 99 100 100 98 97 96 96 92 78 84 88 77 90 87

GFSGL_925_rhum_036.txt.gz
RH
49 46 43 41 38 35 35 37 39 39 43 50 54 45 44 45 43 44 52 51 54 58 60 70 75 72 70 82 68 54 52 54 62 56 52 54 52 50 49 54 57 59 66
49 46 43 40 42 35 36 39 44 53 55 48 43 44 46 45 45 45 50 55 58 58 63 71 70 65 63 53 51 51 52 49 56 65 62 61 56 54 59 64 68 65 68
47 45 42 41 36 33 39 44 52 52 48 42 44 48 47 46 45 48 53 56 58 61 67 66 61 60 62 52 52 48 50 53 56 64 72 68 63 63 66 73 75 77 67
47 46 45 42 35 38 48 54 51 41 44 42 44 47 47 46 46 53 54 58 61 64 63 59 56 49 47 47 48 51 54 59 66 70 75 79 79 71 78 85 91 79 73
52 51 48 42 41 54 58 48 50 48 43 44 47 48 48 48 46 50 54 60 62 60 56 53 49 51 52 52 52 55 63 66 70 68 82 85 82 80 90 86 83 76 74
53 51 48 50 60 56 57 63 52 58 50 45 45 51 46 46 50 51 58 60 60 57 52 46 53 55 56 56 56 59 60 62 66 74 85 85 84 80 76 74 79 88 85
52 52 53 54 57 66 64 58 69 65 53 50 41 48 51 49 52 54 58 61 61 59 52 53 58 61 61 60 59 60 61 63 44 48 74 82 83 74 90 94 95 98 96
58 57 60 58 55 59 68 70 66 61 57 50 54 52 53 54 55 58 63 64 66 60 58 58 64 66 65 63 63 64 64 69 32 54 81 78 80 93 95 99 97 98 99
56 59 60 61 73 81 85 79 73 66 60 60 56 56 57 56 60 65 67 69 68 65 66 69 68 70 68 65 66 69 76 53 49 60 75 70 74 78 88 95 92 100 90
77 74 73 81 85 84 81 77 64 63 58 57 58 58 55 61 60 62 67 72 88 70 69 68 69 73 72 68 73 79 73 49 61 66 70 71 62 65 66 74 86 100 98
79 83 84 87 90 84 73 68 63 61 62 62 61 57 57 65 67 69 70 77 78 71 72 71 67 73 74 78 82 82 65 62 65 70 74 76 70 63 69 71 71 83 100
78 86 88 81 74 69 69 68 66 62 62 60 60 62 63 62 66 74 77 79 76 74 76 73 69 66 72 87 89 70 70 74 76 73 72 75 73 68 76 73 64 71 82
75 75 73 70 65 66 68 69 65 63 66 68 63 62 65 65 65 78 85 85 80 81 81 78 87 68 69 83 74 70 72 73 73 78 72 73 71 75 78 68 69 72 73
71 70 67 68 65 66 69 67 65 70 72 68 67 69 69 70 71 73 80 84 90 94 96 95 94 75 76 83 82 70 75 71 70 67 70 74 72 76 75 72 83 72 85
65 66 66 65 65 66 63 62 64 66 71 70 68 70 79 81 79 76 75 87 93 92 90 99 98 87 92 94 87 71 80 73 71 69 73 74 74 76 80 73 86 82 88
62 61 61 62 55 53 58 62 63 68 70 71 63 68 63 63 70 76 82 83 96 99 98 99 98 96 97 95 86 75 75 83 72 72 73 74 82 78 84 79 79 90 86
66 63 60 59 60 62 65 70 81 67 67 70 69 64 60 63 65 75 80 80 89 100 97 94 96 93 94 93 85 78 78 85 74 71 70 72 77 73 87 83 79 93 93
92 92 90 88 88 87 87 88 90 93 94 93 84 83 76 74 73 70 77 89 100 100 98 98 95 91 88 87 83 76 74 84 82 71 75 71 70 75 92 91 76 97 99
91 95 98 99 98 99 99 100 100 99 99 98 100 94 81 76 77 84 85 99 100 98 100 98 98 93 88 82 77 77 75 75 86 78 79 72 75 85 91 92 75 94 98
93 86 72 77 80 81 82 83 88 92 97 96 98 99 95 89 92 95 97 100 100 98 100 97 96 95 90 86 80 80 79 81 94 93 85 76 83 86 92 85 79 98 97
65 70 86 97 97 96 97 95 94 92 90 87 98 98 96 97 100 100 97 96 100 100 99 99 97 98 94 93 90 84 88 90 87 89 90 80 85 89 88 80 83 95 93
91 100 100 98 96 96 97 98 98 97 97 93 91 98 97 98 96 100 100 98 99 100 99 98 97 97 95 96 94 89 89 92 94 86 90 84 78 83 87 83 77 91 91
91 94 100 97 98 99 100 100 98 98 97 97 99 98 98 98 98 98 99 98 100 100 100 100 97 97 96 96 97 97 97 95 90 86 91 89 80 82 87 86 79 88 92
95 100 88 98 100 100 100 100 100 99 99 99 98 97 98 97 96 96 92 89 88 91 93 95 97 98 98 97 98 99 99 97 98 97 97 97 86 82 88 87 85 92 92
98 99 89 100 100 100 100 100 100 100 98 98 98 97 97 96 95 96 96 91 81 73 73 81 81 87 94 96 98 94 91 96 99 98 98 97 96 92 88 87 82 94 87
92 99 95 94 100 100 100 100 100 100 100 100 99 98 97 96 96 95 95 94 89 84 86 88 88 89 89 82 69 85 98 94 95 96 99 97 96 96 95 90 86 89 86

GFSGL_925_rhum_042.txt.gz
RH
88 92 93 94 97 95 88 84 72 66 53 51 47 66 52 54 49 58 50 47 48 53 57 59 60 65 68 70 74 76 77 84 93 64 57 54 54 57 54 36 46 54 60
88 88 92 94 92 88 84 78 72 59 48 43 56 48 50 56 74 59 48 47 50 54 55 61 59 66 69 73 76 74 69 61 60 60 55 59 62 60 47 47 54 63 61
88 89 90 88 88 84 73 62 52 45 44 71 47 54 66 76 62 53 48 48 48 50 55 60 61 67 67 65 65 64 62 58 56 59 62 69 69 62 46 51 69 67 66
89 86 80 79 68 60 58 54 46 50 56 53 68 70 64 63 68 58 51 50 47 51 56 63 64 66 65 60 58 54 57 54 55 59 67 72 68 60 51 78 80 74 80
83 78 73 64 61 57 50 51 58 62 68 66 68 82 84 84 72 70 75 58 53 55 59 63 64 66 61 54 48 49 52 55 58 69 73 74 72 63 72 83 87 88 92
80 74 67 62 57 55 60 63 65 69 72 81 84 90 94 94 75 60 52 53 55 58 61 64 66 63 55 50 54 56 57 56 63 71 69 76 64 57 76 86 96 96 80
76 74 66 61 63 65 68 72 80 86 90 94 94 98 79 66 58 54 54 56 59 62 65 67 66 60 55 56 57 60 62 65 66 67 73 68 58 63 85 96 98 97 94
83 78 75 71 71 72 75 85 92 96 99 96 88 69 64 58 54 58 55 57 60 64 69 67 63 62 66 75 66 66 70 70 68 71 75 51 63 77 92 87 92 89 94
80 78 76 71 73 82 95 97 96 97 94 77 72 63 59 57 58 59 57 60 63 67 67 66 66 71 95 78 70 72 72 70 70 77 62 71 88 92 87 89 70 93 92
84 81 79 83 79 86 93 98 91 80 71 67 65 62 64 65 62 60 60 63 65 65 66 70 68 86 92 90 75 71 76 73 73 75 57 64 68 71 72 74 72 97 97
73 75 78 86 94 98 93 79 71 69 69 68 68 64 62 61 61 63 65 70 71 70 73 76 73 77 98 91 83 71 72 71 80 73 64 68 72 73 71 74 73 80 95
91 90 90 83 76 73 70 67 67 70 70 67 67 65 60 61 65 64 64 67 68 74 77 78 80 82 92 98 94 74 74 79 89 82 80 83 80 73 71 75 74 72 72
67 68 66 64 63 64 63 62 64 66 69 70 71 70 64 58 60 64 66 64 66 75 75 77 83 83 94 98 97 82 94 92 96 99 98 89 78 72 74 76 75 73 71
63 66 68 69 70 70 71 72 73 71 73 76 80 84 79 77 72 66 66 65 62 66 76 82 83 88 98 97 98 97 97 90 95 93 84 79 79 75 74 76 80 77 82
78 84 87 87 86 84 82 84 85 81 85 92 95 95 97 96 88 85 84 84 95 78 78 91 99 100 100 98 98 97 97 96 95 92 86 81 82 78 77 78 79 82 89
82 81 80 77 76 83 92 85 69 73 80 80 83 88 93 98 94 91 94 100 99 99 99 100 100 100 100 100 100 97 97 96 95 92 91 81 87 80 78 79 76 87 86
66 63 56 59 72 83 90 95 98 85 88 88 87 87 87 84 82 83 92 94 91 100 99 97 99 99 99 100 100 98 96 96 89 90 90 79 84 83 77 79 74 90 85
49 60 68 76 85 92 94 97 99 94 89 88 88 90 89 91 92 91 90 91 98 99 100 99 99 91 93 98 100 97 96 97 90 91 85 80 94 84 78 81 75 90 89
62 81 78 77 92 91 89 89 90 94 99 97 94 86 96 92 91 93 87 98 99 98 99 98 89 94 96 100 100 97 96 96 92 85 78 80 92 85 81 86 82 90 87
69 84 73 79 93 91 98 99 100 99 98 98 100 100 100 99 95 98 99 96 100 100 98 97 95 98 99 100 100 97 96 97 95 88 80 77 83 87 86 91 88 90 83
74 90 70 70 82 92 89 100 100 100 100 100 100 100 100 100 100 99 98 99 100 98 99 97 97 98 100 100 99 96 96 96 95 88 82 81 81 89 91 95 92 90 81
78 77 74 84 84 86 90 92 100 100 100 100 100 100 100 100 100 100 99 98 96 95 96 97 97 98 100 100 98 97 96 96 97 94 86 84 85 91 96 97 96 92 83
81 81 75 79 85 84 83 87 99 93 99 100 100 100 100 100 100 100 100 99 96 95 95 96 96 96 97 96 96 97 97 96 96 97 97 94 91 96 97 97 95 93 86
76 77 82 83 86 82 80 89 97 87 94 99 98 100 100 100 100 100 100 100 97 96 96 96 95 97 100 96 94 96 96 97 97 97 97 97 97 97 97 98 95 91 86
73 74 83 91 89 85 79 79 83 84 88 94 95 97 100 98 100 100 97 100 100 98 96 96 96 96 96 98 97 96 95 96 96 97 97 97 97 96 96 96 95 94 89
82 80 75 89 96 93 87 82 82 85 89 92 93 94 99 98 100 99 97 100 99 98 98 97 96 89 93 94 95 94 94 96 96 96 97 98 99 97 96 96 96 94 89

GFSGL_925_rhum_045.txt.gz
RH
98 99 99 98 94 97 96 98 96 89 84 67 61 54 60 65 58 53 63 68 51 47 49 60 69 59 73 77 79 78 75 75 77 54 58 56 58 58 57 57 52 50 51
94 90 93 97 100 100 100 100 100 92 80 67 65 55 72 66 59 66 76 67 60 56 49 73 63 76 80 79 79 78 74 69 68 54 48 53 59 59 62 59 49 52 59
92 95 100 100 100 100 100 100 97 92 84 74 61 66 72 61 69 73 80 71 62 52 54 70 71 78 76 74 78 73 68 66 62 59 52 52 60 62 58 51 48 60 56
100 99 98 100 100 100 97 92 88 83 74 60 66 74 70 76 79 80 75 69 66 62 59 62 71 75 73 71 74 70 65 60 56 56 53 52 57 57 60 48 48 48 52
95 94 94 89 88 87 81 70 64 61 65 75 74 72 76 85 90 87 96 80 78 75 61 62 59 63 64 70 70 64 60 56 55 55 54 54 54 52 46 46 56 54 56
90 88 82 80 74 65 63 63 65 72 71 70 78 87 90 95 98 98 96 86 69 67 69 65 62 63 67 67 63 59 53 58 62 60 58 57 56 57 52 56 61 60 54
86 83 82 70 68 70 69 71 75 83 92 91 92 96 98 98 86 72 63 63 70 69 67 72 74 67 69 68 64 57 68 62 63 66 70 64 67 59 53 62 62 62 62
83 80 81 75 76 76 79 91 97 93 92 92 93 98 99 79 64 60 61 59 56 53 59 65 77 75 68 65 69 87 82 76 78 76 72 70 70 58 66 73 72 73 63
79 78 78 81 88 94 98 96 93 96 92 98 97 89 80 66 60 61 62 64 60 58 61 62 69 73 66 64 69 96 78 73 73 72 70 71 72 60 89 77 73 65 66
84 85 86 89 87 88 89 98 99 83 85 80 72 67 70 68 63 61 62 66 66 75 74 65 64 66 71 68 88 100 91 76 70 72 77 76 71 76 83 80 71 72 67
88 91 88 91 96 98 88 75 75 78 73 71 67 64 64 62 60 56 60 67 76 82 83 79 77 66 72 72 74 100 96 85 77 76 74 64 61 67 71 72 71 73 73
92 87 80 74 72 71 69 69 71 79 80 78 71 68 70 63 63 63 63 64 68 75 77 80 82 72 72 79 86 97 96 98 93 88 86 78 74 76 72 70 73 77 77
72 76 73 67 67 67 75 79 76 80 84 86 86 87 84 88 88 83 72 75 75 76 79 70 64 73 77 87 90 93 99 98 99 97 91 81 80 77 78 83 83 83 83
80 86 88 87 85 86 84 84 82 84 84 82 82 83 86 86 84 88 94 95 96 98 95 97 98 84 94 100 100 100 99 99 99 97 91 83 86 92 90 83 84 82 81
87 85 82 78 71 64 62 67 66 69 82 82 79 80 86 88 86 93 94 94 94 96 99 100 99 100 100 100 100 100 100 100 99 100 97 95 94 88 86 85 89 85 79
70 63 67 65 66 64 64 61 73 86 88 87 86 89 89 93 94 94 94 95 95 95 96 95 95 98 99 98 97 98 100 100 100 99 99 98 95 89 85 86 87 85 76
62 68 70 73 73 75 74 72 72 73 84 91 92 93 93 96 98 91 94 100 93 94 94 84 91 98 97 98 98 97 97 99 100 99 99 99 99 92 92 85 85 84 79
75 74 75 78 82 80 78 79 77 79 80 79 85 91 96 98 98 97 97 89 92 86 82 87 93 96 97 98 98 98 98 100 100 99 100 100 100 94 90 86 82 84 81
73 74 83 88 87 86 86 85 83 82 82 80 80 80 91 99 96 96 99 100 98 96 99 98 94 96 98 98 99 99 100 100 99 100 100 100 100 94 94 84 82 86 88
78 81 74 82 84 84 84 86 83 85 83 84 84 90 92 94 93 95 97 100 100 99 98 99 97 98 98 99 98 98 100 100 100 100 100 99 99 100 97 91 90 91 87
82 81 78 85 87 88 89 89 89 90 88 88 90 96 100 100 96 95 96 99 100 100 100 100 99 96 97 98 99 100 100 100 100 100 99 100 100 99 99 95 95 98 89
85 86 87 89 90 94 91 91 95 94 90 91 93 93 100 100 98 98 98 100 100 100 100 100 100 100 99 98 97 98 99 100 100 99 99 98 99 99 98 99 100 100 94
85 79 91 90 94 94 95 94 96 96 93 96 97 96 98 99 100 99 100 100 100 100 100 100 100 98 98 94 97 99 100 99 98 96 98 98 99 100 100 100 100 100 97
75 87 92 96 100 97 98 98 99 94 97 97 100 100 100 100 100 100 100 100 100 100 100 100 100 100 96 96 96 100 100 98 96 96 98 99 98 100 100 100 100 100 99
75 82 95 100 100 100 100 99 100 100 100 100 100 100 100 100 100 100 100 100 100 100 99 100 100 100 98 96 96 97 100 97 96 96 96 96 100 99 99 100 100 100 100
86 84 88 90 100 100 100 100 100 100 100 100 100 100 100 100 100 100 100 100 100 100 99 100 95 99 97 96 96 96 95 95 99 97 96 96 98 100 99 99 100 99 100

GFSGL_925_rhum_048.txt.gz
RH
73 78 86 91 93 94 99 100 100 99 99 92 88 78 76 70 71 75 64 78 74 77 92 75 64 57 53 52 56 55 52 50 46 40 39 38 45 52 50 47 48 44 35
69 76 80 88 95 98 100 100 100 100 100 95 88 77 90 72 80 76 86 88 88 89 86 70 62 53 54 58 55 57 57 54 50 44 41 40 40 43 48 50 48 39 36
72 79 87 98 100 99 100 99 99 100 99 89 84 95 90 77 77 85 92 90 91 94 81 71 60 57 55 58 57 62 57 51 48 48 44 42 42 42 45 45 43 36 38
87 88 94 100 99 99 99 100 100 100 96 92 95 88 76 88 87 82 90 96 98 92 79 72 64 63 59 58 56 62 62 56 51 48 44 43 42 41 43 42 37 30 34
89 90 97 98 95 93 89 86 88 87 89 89 80 82 87 81 86 91 98 95 98 99 83 74 64 66 68 63 55 52 57 57 55 47 44 43 41 41 37 38 39 36 38
78 79 81 78 77 81 84 85 86 80 86 80 88 80 85 88 96 96 99 98 99 81 65 60 57 58 72 71 67 66 64 62 57 53 55 56 46 42 41 45 37 39 40
74 74 75 74 76 80 77 76 80 88 87 83 84 88 94 95 98 98 93 85 71 63 61 57 54 49 60 72 73 73 68 63 60 66 71 63 51 46 46 46 39 43 45
69 71 71 71 73 75 79 86 95 85 85 88 90 95 99 97 92 77 64 68 63 59 58 56 54 52 54 62 69 64 62 62 75 83 74 60 52 52 53 50 48 55 53
66 66 68 70 76 77 86 96 96 91 95 97 84 78 73 69 71 66 63 68 64 61 58 55 55 55 55 64 74 69 64 64 79 77 71 66 64 64 67 61 59 55 57
68 69 72 76 79 84 98 97 95 84 70 66 64 64 68 69 69 72 61 68 67 65 62 58 59 64 65 64 71 74 75 67 68 77 71 73 76 78 79 75 63 58 55
72 78 85 92 96 90 79 71 65 62 65 69 71 67 64 65 67 74 75 85 79 77 71 64 61 63 68 70 68 78 83 76 82 98 88 60 59 57 53 64 64 58 57
79 80 76 71 63 62 60 58 55 55 59 62 70 72 70 71 73 77 79 80 89 93 93 87 80 80 80 77 78 84 80 86 98 98 96 83 65 62 54 52 53 54 56
64 61 60 59 58 60 58 61 58 62 66 66 63 62 57 61 59 62 70 75 73 78 82 90 90 86 92 100 97 90 98 99 100 99 97 89 83 79 71 67 65 61 63
59 62 63 64 60 60 55 50 44 50 54 50 52 58 60 64 61 75 76 75 76 81 78 80 86 90 92 94 99 100 100 99 100 98 97 89 93 93 80 73 74 68 74
60 59 57 54 40 34 35 46 51 62 70 64 66 66 74 76 77 92 93 88 89 92 97 92 82 76 76 76 90 100 98 98 100 100 99 98 98 89 92 81 83 76 70
47 44 52 48 48 42 39 40 58 59 62 77 74 89 85 89 93 95 94 94 95 88 92 77 77 81 76 67 72 92 99 98 95 98 97 98 98 95 91 85 80 83 67
41 46 50 51 49 50 49 50 48 57 68 80 84 88 88 93 95 94 92 93 84 78 78 81 89 94 90 72 71 84 99 98 96 99 96 98 98 97 96 88 86 80 71
55 52 52 54 56 57 59 60 60 63 65 63 68 77 84 89 93 89 88 82 75 75 76 77 83 88 88 95 92 88 98 98 97 99 96 98 98 96 96 90 78 83 73
49 53 64 70 71 72 69 68 64 65 66 64 64 64 74 87 88 84 84 82 83 80 81 83 86 89 92 96 99 98 97 98 99 96 98 97 98 98 96 90 79 80 75
62 66 64 64 66 66 66 68 64 68 67 68 68 74 81 83 81 79 80 84 86 84 86 87 89 92 95 96 97 99 98 98 99 98 97 94 97 98 96 86 86 88 75
52 61 71 64 67 69 71 71 71 72 74 73 74 82 96 92 83 80 81 82 87 89 90 91 93 95 96 97 97 96 97 98 98 98 98 98 97 98 94 94 89 84 86
66 66 70 72 72 80 78 74 78 79 76 76 78 78 87 83 82 82 82 85 92 92 93 94 96 96 97 98 99 97 97 96 98 98 98 99 98 98 96 96 92 93 84
76 79 73 72 80 84 83 82 83 85 82 83 83 82 84 85 88 86 89 91 92 94 97 98 98 99 100 100 100 100 100 97 100 100 99 98 98 98 97 93 88 92 92
82 85 76 82 90 86 89 90 89 86 86 85 88 88 87 90 92 92 93 95 97 98 100 100 100 100 100 100 100 100 100 100 100 100 100 99 98 98 98 97 94 90 89
92 90 90 88 92 92 93 90 90 91 90 91 91 92 91 93 92 93 96 98 99 98 99 100 100 100 100 100 100 100 99 96 97 96 100 96 97 96 98 98 97 97 96
89 89 89 92 91 93 93 93 92 93 93 93 94 96 97 96 96 98 99 99 96 100 100 100 100 100 100 100 100 100 98 96 97 96 97 97 99 98 98 98 98 97 96

GFSGL_925_rhum_051.txt.gz
RH
54 64 73 81 87 97 95 94 95 97 98 92 92 93 88 83 82 91 83 78 71 90 78 92 91 83 70 64 53 54 54 50 48 42 39 37 36 38 39 47 48 47 46
56 61 70 82 87 91 93 97 96 99 100 98 94 95 96 83 91 95 90 81 78 84 97 91 93 85 71 63 60 58 54 52 53 53 46 41 38 37 39 42 45 41 42
55 58 70 91 97 100 100 100 100 100 100 100 100 99 91 94 97 92 79 84 87 91 91 96 95 87 85 78 64 61 58 56 56 58 58 42 39 38 38 39 40 41 41
61 65 89 98 99 99 99 99 100 100 99 98 95 92 94 95 91 87 88 88 94 95 96 98 98 96 88 72 67 58 56 59 59 56 54 48 45 38 38 39 40 37 36
86 91 97 99 97 98 97 97 98 95 97 98 95 93 87 86 85 81 91 98 99 100 99 98 98 87 79 65 63 64 59 53 57 62 58 50 43 39 38 38 44 38 38
75 78 79 76 76 79 81 84 82 85 84 88 89 91 95 92 88 92 100 100 100 99 98 92 77 56 55 54 55 58 64 74 66 59 56 58 52 48 55 52 44 43 41
67 68 70 70 72 72 69 70 72 76 82 89 93 92 96 99 96 96 98 98 86 72 63 58 55 48 46 46 47 53 61 66 71 75 70 63 61 61 66 63 47 48 43
62 64 66 66 66 67 71 76 82 85 85 91 94 91 95 88 83 79 77 72 62 58 56 54 53 52 51 50 51 54 59 68 72 67 69 65 65 66 70 54 54 51 48
58 60 62 64 68 70 74 79 86 94 92 87 85 79 69 63 69 70 70 66 64 61 56 54 53 53 52 51 55 60 62 60 57 52 58 66 73 74 60 59 60 59 62
57 60 63 65 70 80 93 90 88 84 66 58 56 56 58 57 61 68 70 77 76 71 69 64 61 60 59 58 59 66 68 65 60 56 63 86 82 78 72 68 66 67 60
62 67 75 81 85 90 83 73 60 56 54 63 63 63 60 61 66 76 76 82 87 94 86 83 81 80 80 88 95 94 84 72 70 69 71 71 97 82 72 75 74 69 65
69 71 73 72 63 60 56 50 46 47 54 58 66 65 64 66 64 64 63 68 68 73 72 77 72 75 72 66 68 86 88 99 99 96 90 95 94 99 94 81 63 65 62
65 61 57 50 46 45 45 50 45 50 54 54 50 51 49 56 53 60 71 69 71 75 75 78 77 80 80 84 83 86 98 100 100 100 98 96 84 80 88 95 84 63 59
53 51 50 48 47 45 41 34 34 46 49 44 47 54 56 63 58 78 77 76 74 76 80 84 83 86 77 74 72 75 85 96 98 99 97 92 86 87 99 96 88 76 70
48 46 46 42 34 29 34 39 47 72 56 59 63 63 73 76 79 91 90 84 84 85 91 86 79 81 84 84 80 72 66 72 96 100 100 99 94 99 99 98 93 83 75
43 42 47 44 40 31 30 52 52 51 51 46 55 63 84 88 91 92 91 88 88 92 80 69 70 78 84 82 79 82 92 80 84 100 100 96 90 95 98 98 97 96 76
41 45 48 45 41 41 41 43 41 78 64 69 71 71 80 89 89 91 88 84 84 71 64 62 70 80 84 85 84 85 92 94 98 100 98 98 93 88 99 98 98 95 81
48 43 44 46 48 48 50 53 52 56 61 62 68 65 68 82 87 88 82 80 67 66 64 64 68 79 87 88 89 94 93 100 99 100 99 95 96 95 97 98 97 96 83
44 49 59 66 66 63 63 61 59 58 60 60 58 58 64 78 81 82 80 76 75 70 68 69 72 77 89 93 93 96 99 97 98 97 99 97 94 94 98 98 98 97 93
57 56 57 59 61 60 59 62 57 61 62 62 63 65 74 79 79 74 73 75 75 73 74 76 80 86 93 95 95 95 99 97 98 98 97 92 91 94 98 98 98 96 84
50 62 60 57 60 61 64 65 64 66 68 66 67 75 82 81 81 72 71 72 76 78 80 82 85 92 93 94 93 95 98 98 97 98 98 98 98 98 98 98 98 98 98
60 60 63 66 64 74 74 68 71 72 71 69 71 71 77 81 76 76 75 78 85 85 86 87 90 89 90 92 94 94 97 98 97 97 96 98 98 97 99 98 98 98 92
71 73 66 64 74 76 78 76 75 78 77 78 77 76 78 78 81 80 82 85 86 89 91 92 93 93 92 94 94 94 97 98 96 96 96 95 97 98 98 98 98 98 94
78 81 71 72 80 82 82 84 83 82 80 79 81 81 80 81 83 84 85 87 90 91 93 95 96 96 95 96 96 96 97 97 98 98 98 97 96 98 98 98 98 97 92
86 85 82 81 82 83 85 82 83 84 84 83 83 83 82 83 82 83 86 90 92 92 94 96 97 98 97 98 98 100 99 100 98 97 98 99 100 98 97 97 97 97 97
83 82 83 84 83 84 84 85 86 86 85 85 86 86 86 86 85 87 89 92 92 96 100 98 99 100 100 99 100 99 99 100 100 97 100 100 99 96 96 97 96 97 97

GFSGL_925_rhum_057.txt.gz
RH
59 59 59 61 64 69 67 75 74 76 88 95 94 92 96 91 88 90 91 88 90 95 94 93 90 88 87 87 86 93 89 76 74 68 61 57 55 49 46 41 43 41 42
60 69 70 77 83 87 82 78 70 89 91 95 93 90 92 94 94 92 90 91 93 93 93 91 84 90 89 87 90 92 89 76 73 74 70 68 64 59 58 52 47 46 43
80 79 80 73 78 93 88 92 100 100 100 100 95 93 94 94 94 94 93 96 95 91 86 82 86 93 90 90 90 92 91 86 82 82 81 75 72 66 60 58 55 47 44
90 91 96 97 98 100 100 99 99 100 100 100 99 98 98 99 99 99 97 93 90 85 82 92 94 92 90 91 98 99 93 92 89 88 85 84 82 72 68 68 63 55 60
86 94 100 100 100 100 99 99 100 100 100 100 100 100 100 99 98 96 93 91 84 86 92 91 92 90 90 95 100 96 92 90 88 83 82 74 74 73 72 65 67 63 54
100 100 100 100 100 99 97 98 98 98 98 96 95 94 96 95 94 89 86 86 91 96 97 88 79 78 73 67 67 72 76 80 92 88 81 76 73 74 69 69 69 72 78
97 96 96 97 92 88 87 87 90 89 89 87 83 82 85 84 84 86 90 98 99 91 85 76 75 74 73 74 71 69 68 68 71 75 82 78 78 77 75 80 82 78 77
86 88 92 89 88 85 85 85 87 87 85 86 86 86 88 92 91 88 80 71 74 77 75 74 74 73 72 71 70 64 57 56 68 80 89 92 92 85 77 82 82 86 80
80 82 81 79 81 82 88 87 84 84 85 81 78 83 81 89 88 84 74 79 75 71 71 71 62 49 44 39 30 29 35 26 30 43 59 66 48 63 95 99 98 88 86
74 74 72 77 84 84 81 83 81 79 75 72 80 78 73 88 87 75 75 76 73 64 53 45 34 37 46 26 55 83 91 76 82 81 81 89 90 91 82 76 99 91 89
68 70 75 76 79 79 78 78 76 81 72 63 68 68 69 70 72 68 63 60 57 50 34 31 36 45 29 52 79 84 91 96 98 99 100 93 84 81 84 96 91 99 98
73 78 81 79 78 78 74 74 75 63 61 64 75 80 72 66 66 64 62 61 36 27 48 53 41 33 60 82 79 83 77 71 94 98 100 97 92 90 81 84 98 97 100
80 81 80 80 76 72 63 57 59 60 68 69 66 72 78 81 75 69 65 41 21 32 46 46 47 66 83 81 76 81 79 86 91 94 96 94 95 96 99 92 91 99 99
79 78 74 72 67 52 53 58 56 55 50 51 58 69 75 77 72 66 44 24 31 44 56 59 66 79 76 71 77 80 86 87 92 96 97 97 99 100 100 100 100 100 99
68 58 49 47 42 45 52 53 52 52 48 54 61 66 70 77 76 68 62 59 78 83 76 72 75 75 77 85 87 89 88 91 92 97 98 99 97 96 99 100 100 98 98
56 49 44 38 39 44 51 48 40 32 28 32 35 32 42 51 57 56 72 83 86 83 81 75 74 78 82 89 92 95 91 94 95 98 99 99 99 95 99 100 97 98 98
46 40 39 43 45 44 48 56 82 75 74 74 68 64 60 62 72 76 76 88 84 79 75 76 76 78 83 93 94 96 96 96 98 99 100 100 98 98 100 100 98 97 99
54 50 52 56 56 58 64 77 79 89 91 89 84 73 82 81 86 73 86 84 84 73 75 85 84 82 89 95 97 100 100 100 100 100 100 100 97 96 98 98 98 99 99
64 70 75 83 86 86 89 89 77 69 66 66 69 88 89 83 77 63 71 81 81 85 88 86 80 93 95 92 93 96 97 98 100 100 100 100 98 97 96 98 98 98 97
84 89 91 92 95 94 92 88 75 71 68 68 69 81 84 79 71 60 88 86 82 94 89 82 94 95 86 87 92 100 97 96 100 100 100 100 100 98 99 100 98 98 100
96 95 95 95 95 93 88 78 72 72 73 71 72 75 79 77 74 86 98 86 93 89 85 95 95 87 83 89 100 96 86 98 100 100 100 100 100 98 99 98 97 100 98
95 96 95 93 93 91 86 78 79 78 80 81 84 84 87 90 94 96 92 91 88 91 97 96 86 83 91 100 91 90 99 100 100 100 100 100 100 100 99 99 98 97 100
95 94 95 92 90 84 85 88 84 85 89 82 78 82 88 95 97 96 95 96 99 99 96 86 84 94 93 86 97 100 100 98 100 100 100 100 100 100 100 100 99 99 98
92 90 82 80 82 80 78 93 83 82 97 96 94 93 99 96 93 98 99 96 94 92 89 91 96 84 96 98 94 93 99 100 100 100 100 100 100 100 100 100 99 98 98
93 93 94 94 94 95 97 95 97 94 95 96 96 97 92 86 93 96 96 91 85 92 97 93 81 86 88 94 94 96 100 100 100 100 100 100 100 100 98 99 97 98 96
96 96 92 90 93 93 91 95 95 89 90 96 93 85 90 99 96 91 86 88 97 99 91 81 80 88 93 95 98 100 100 100 100 99 100 100 100 100 98 97 96 96 96

GFSGL_925_rhum_060.txt.gz
RH
74 76 76 78 79 84 84 81 88 81 79 69 74 83 90 100 100 97 95 92 92 94 95 96 96 93 96 96 92 90 91 99 98 89 79 72 66 60 57 53 47 47 46
71 73 73 75 81 76 76 94 82 99 90 86 90 92 98 100 100 97 93 95 95 96 96 97 97 95 94 89 87 85 88 94 95 92 84 78 72 74 72 70 67 66 63
74 73 82 83 80 77 80 89 74 94 94 97 96 93 94 95 95 97 97 96 96 95 96 96 94 92 92 90 87 89 93 95 95 97 95 88 90 87 80 76 69 62 65
79 73 86 85 89 90 90 87 86 91 98 100 98 97 97 99 99 97 97 96 96 99 95 89 86 89 95 93 95 88 89 93 96 97 100 96 91 81 78 75 70 61 58
82 84 88 88 97 100 100 99 98 100 100 100 100 100 100 100 99 98 98 99 97 94 85 87 92 95 96 85 95 96 99 100 100 100 100 100 95 86 81 71 70 67 67
91 100 99 100 100 100 100 99 100 100 100 100 100 100 100 100 100 98 94 94 84 84 95 98 89 89 92 93 89 81 76 78 90 99 98 94 97 87 83 83 85 88 89
99 100 100 100 100 100 100 100 100 100 100 100 100 97 96 96 96 89 84 88 96 100 93 87 83 79 75 72 69 67 60 46 32 44 80 83 94 90 98 99 100 99 91
100 100 100 100 100 100 100 100 99 96 95 96 90 83 82 85 87 92 98 98 96 88 78 75 75 72 67 56 43 19 13 16 31 50 67 69 72 70 78 92 94 99 99
100 100 98 96 95 98 97 92 89 84 83 81 80 83 85 94 95 91 79 73 79 78 75 68 59 41 27 16 22 55 60 58 70 77 80 78 74 75 82 92 95 94 88
97 96 96 96 97 94 86 86 86 82 84 86 93 93 94 100 95 82 74 76 74 68 57 39 21 20 18 26 72 79 89 97 84 75 86 88 83 79 78 93 95 97 94
87 87 89 89 86 84 85 84 83 85 89 92 96 99 100 97 84 78 74 68 58 46 28 28 34 25 40 74 81 78 86 78 63 66 83 96 94 91 91 96 98 100 97
83 86 87 87 86 86 83 85 86 88 84 86 90 86 81 76 70 65 62 56 41 23 32 37 34 51 79 84 79 81 82 63 58 67 90 93 92 91 95 93 88 99 100
82 88 89 86 85 84 82 89 80 76 77 90 86 87 87 84 78 70 62 42 22 28 37 47 59 74 80 70 72 81 71 74 79 96 99 99 99 97 97 100 94 86 99
88 91 88 85 86 82 83 81 69 76 85 90 89 90 88 84 77 69 45 32 39 50 55 62 71 76 73 73 76 84 84 84 92 97 100 100 100 100 100 99 100 98 100
86 83 79 76 70 67 70 71 69 71 70 74 80 81 87 88 79 56 50 55 69 76 72 74 74 76 76 84 91 92 90 92 96 99 100 100 100 100 99 97 100 100 98
72 68 66 66 62 58 52 46 47 55 58 62 70 65 60 64 55 67 67 85 88 82 79 78 79 77 76 89 94 96 96 98 99 100 100 100 100 100 99 98 99 100 98
62 62 61 64 62 56 57 63 86 81 76 77 72 71 71 82 82 80 76 88 88 73 68 83 84 82 87 96 97 100 100 100 96 100 100 100 100 100 100 98 95 100 98
66 60 61 67 66 68 72 81 85 88 92 94 94 91 88 85 86 80 83 80 81 77 81 89 84 87 98 100 99 99 99 94 85 98 100 100 100 100 100 98 98 99 98
69 83 82 84 86 89 91 94 96 96 96 96 96 97 95 92 89 79 81 80 82 89 90 85 82 92 91 85 80 84 98 90 81 99 99 100 99 100 100 98 97 97 97
97 97 95 94 97 96 96 96 96 96 96 83 86 91 91 89 77 67 83 88 85 89 86 84 91 92 85 79 83 98 94 84 92 100 100 100 97 100 100 100 98 97 98
96 96 96 96 96 96 96 96 96 96 95 91 87 89 88 80 82 86 94 92 92 89 90 95 95 88 82 89 99 93 93 94 98 100 100 100 100 100 100 100 99 98 98
95 95 95 96 95 95 95 95 95 95 95 94 89 89 92 94 95 96 96 97 97 98 100 98 91 88 92 94 89 98 100 100 99 98 100 100 100 100 100 100 100 98 98
95 95 95 95 95 95 95 96 95 95 95 95 95 95 96 96 96 96 97 97 97 98 93 89 94 93 88 77 93 94 100 100 100 100 100 100 100 100 100 100 100 98 98
95 95 95 96 95 95 96 96 95 95 96 96 96 96 96 95 95 97 96 96 94 89 91 97 94 87 75 81 88 93 98 100 100 100 100 100 100 100 100 100 100 98 98
95 95 94 95 96 96 94 95 95 95 93 95 96 95 91 93 94 93 92 86 86 95 95 93 82 76 82 90 91 93 98 99 100 100 100 100 100 100 100 100 100 99 97
93 92 93 93 94 95 98 98 98 98 100 100 100 100 99 98 97 92 86 92 97 96 88 81 78 83 89 91 93 100 100 99 100 99 100 99 100 99 100 99 99 99 97

GFSGL_925_rhum_063.txt.gz
RH
68 73 69 69 70 75 81 83 84 86 86 88 89 90 88 90 88 100 100 99 99 97 94 95 96 92 92 96 95 95 95 94 100 97 95 88 82 76 71 70 70 63 62
77 75 75 69 69 70 77 77 84 89 90 86 85 99 91 98 100 100 100 99 100 98 97 99 96 98 98 98 97 93 90 90 100 100 97 92 88 84 81 82 79 78 76
82 84 85 87 89 82 97 76 99 94 94 87 81 89 100 100 100 100 100 100 100 98 98 98 99 99 100 97 92 90 88 91 98 100 100 99 95 87 85 78 75 73 70
84 88 88 82 87 86 90 90 100 100 97 88 66 80 99 100 100 100 100 100 100 100 100 100 99 96 93 94 97 94 95 87 95 97 97 98 98 97 98 91 85 78 72
84 87 89 86 91 95 98 99 100 100 100 99 92 98 100 100 100 100 100 100 99 99 100 96 94 96 99 100 99 99 94 89 86 91 97 95 89 87 95 90 91 91 88
85 85 84 84 93 99 100 100 100 100 100 100 100 100 100 100 100 100 98 100 100 96 92 98 100 99 94 93 88 84 78 75 69 69 66 61 68 76 88 82 87 86 78
78 85 87 99 100 100 100 99 100 100 100 100 100 100 100 100 100 100 100 98 94 91 99 99 95 87 80 76 73 69 59 38 26 37 49 55 70 69 82 85 90 91 90
93 98 100 100 100 100 100 100 100 100 100 100 100 100 99 100 100 100 95 91 99 100 94 85 78 76 72 66 56 34 20 30 43 59 77 80 84 84 91 94 100 100 98
100 100 100 99 100 100 100 100 100 100 100 100 100 100 100 99 95 97 100 100 94 84 78 75 70 60 45 24 18 26 36 42 49 48 44 39 41 59 67 87 97 96 90
100 100 100 100 100 100 100 99 100 100 100 100 94 91 93 100 100 100 94 83 77 74 68 56 36 27 20 22 53 68 70 76 58 40 30 32 52 62 77 85 93 98 93
100 99 99 100 100 99 100 100 100 100 97 97 100 100 100 99 97 81 78 76 71 63 47 30 24 21 30 65 85 78 84 76 54 49 53 55 63 63 62 73 80 100 100
99 100 100 99 99 100 99 99 94 95 100 100 100 100 99 92 85 76 69 64 53 38 28 29 28 46 72 89 79 74 74 61 58 60 74 84 87 83 75 80 84 91 100
97 100 100 100 99 95 92 95 97 98 100 100 100 97 89 83 76 66 61 51 34 22 28 41 59 75 82 71 68 76 70 61 68 83 95 91 90 80 82 91 94 97 100
97 100 100 99 99 97 94 92 93 98 100 99 98 97 91 83 72 63 50 34 29 37 50 69 74 74 69 68 71 78 74 76 76 94 95 91 91 87 97 96 100 100 100
97 94 91 91 92 92 90 92 90 92 87 88 89 86 86 86 78 62 49 49 60 73 82 80 73 70 72 79 88 89 89 92 94 92 93 98 98 93 99 98 100 100 99
88 88 84 82 82 82 81 79 78 82 84 86 85 79 82 85 87 63 64 87 88 84 86 80 78 78 77 94 98 98 98 97 97 97 91 100 99 100 100 99 100 100 98
86 83 75 73 74 76 76 81 94 91 54 50 51 55 62 71 87 83 72 83 91 75 69 82 84 84 90 97 98 99 97 99 99 84 80 100 99 100 100 100 100 100 99
82 82 81 83 82 80 81 87 94 96 99 100 96 93 94 95 95 94 94 90 88 82 89 91 86 90 94 98 98 97 94 94 88 78 84 97 95 100 100 100 100 100 98
99 99 98 97 96 96 97 97 96 96 96 96 96 97 96 95 95 95 94 92 93 91 91 90 88 97 90 86 80 80 92 93 83 89 92 99 96 100 100 100 100 100 99
97 97 97 97 97 97 96 96 96 96 96 96 96 96 96 95 95 95 94 90 87 89 90 93 97 94 88 83 84 92 94 88 90 92 97 99 96 98 100 100 100 100 99
96 96 96 96 96 96 96 96 96 96 96 96 95 96 96 95 95 95 96 96 96 96 96 96 95 91 88 87 87 87 91 93 88 93 100 97 96 100 100 100 100 100 100
96 96 95 95 95 95 95 95 95 95 96 95 96 95 95 95 96 96 96 96 97 97 98 96 94 93 93 90 85 81 96 93 90 96 100 100 100 100 100 100 100 100 100
95 95 96 95 95 95 95 95 95 95 95 96 96 96 96 96 96 96 96 96 95 94 92 92 96 96 90 84 76 89 100 99 100 100 100 100 100 100 100 100 100 100 100
95 95 96 95 95 95 95 96 96 95 95 96 96 95 93 91 90 92 93 90 85 84 91 98 98 91 81 76 80 92 95 99 100 100 100 100 100 100 100 100 100 100 100
95 95 95 95 95 96 96 96 95 96 100 100 100 96 96 98 98 94 91 87 90 96 95 92 84 79 80 85 91 93 98 100 100 100 100 100 100 100 100 100 100 100 100
86 87 87 86 87 89 92 93 92 90 88 87 89 96 100 100 99 98 97 96 94 89 85 85 86 86 85 86 90 96 99 100 100 100 100 100 100 99 100 100 100 100 100

GFSGL_925_rhum_066.txt.gz
RH
82 85 85 86 83 80 80 79 78 76 72 69 67 69 67 80 93 96 94 93 96 100 100 100 100 100 100 100 97 95 95 94 99 98 91 84 88 87 81 79 80 80 81
79 81 81 76 74 72 70 66 61 67 66 68 58 73 92 95 98 100 100 100 100 100 100 100 100 100 100 97 97 97 95 92 94 100 98 94 87 93 94 88 82 78 81
79 79 82 78 71 68 56 45 59 68 68 79 94 94 91 96 95 92 99 100 99 100 100 100 100 99 99 100 99 94 89 88 97 100 100 98 94 98 99 84 75 72 65
81 82 81 84 76 69 60 68 77 88 96 100 100 100 100 100 92 79 94 100 100 100 100 100 100 100 99 99 96 95 96 95 93 93 86 88 87 86 86 83 77 65 60
79 86 85 84 84 79 82 80 84 89 97 99 98 100 100 99 94 97 98 100 100 100 100 100 100 100 99 98 99 99 96 93 88 83 95 95 80 63 59 72 70 64 61
80 84 88 88 91 92 93 97 93 94 98 100 100 100 100 100 100 100 99 100 100 100 100 100 100 99 100 100 98 93 89 82 74 67 63 55 48 60 60 76 78 89 77
82 85 88 91 93 94 97 100 100 100 100 100 100 100 100 100 100 100 100 100 100 100 100 100 99 100 96 88 85 75 65 52 37 40 50 64 74 70 81 87 93 100 98
83 87 91 92 95 96 98 100 100 100 100 100 100 100 100 100 100 100 100 100 100 100 100 100 94 86 81 74 66 50 37 36 44 56 61 58 61 57 88 100 100 96 91
88 91 95 99 100 100 100 100 100 100 100 100 100 100 100 100 100 100 100 99 100 99 96 88 80 73 66 53 33 27 42 56 55 41 31 26 28 36 66 88 91 98 88
99 100 100 100 100 100 100 100 99 100 100 100 100 100 100 100 100 100 95 96 92 83 74 66 56 49 27 20 30 44 55 62 47 32 24 23 27 31 35 45 66 95 94
100 100 100 100 100 100 100 100 100 100 100 100 100 100 100 100 100 100 98 91 82 70 59 48 36 26 38 59 67 60 64 59 45 36 31 30 33 36 38 44 59 88 100
100 100 100 100 100 100 100 100 100 100 100 100 100 100 100 98 92 86 79 73 68 60 42 33 32 56 84 83 74 69 60 52 42 40 50 67 77 79 66 52 59 75 84
100 100 100 100 100 100 100 100 100 100 100 100 100 100 96 88 77 70 61 51 40 33 28 38 55 77 78 70 68 61 56 54 58 63 90 88 85 88 82 77 86 83 98
100 100 100 100 100 100 100 100 99 100 100 100 100 97 94 86 76 64 52 38 27 24 37 53 71 73 68 64 65 71 73 73 71 91 92 86 90 96 88 88 90 91 100
99 100 100 100 98 99 100 100 100 100 95 98 98 94 89 82 69 58 49 39 38 52 66 79 74 71 72 78 85 80 77 77 87 94 96 93 96 96 91 96 93 94 100
97 97 98 96 95 96 98 100 98 98 98 100 100 94 93 92 93 69 40 52 81 81 84 84 77 74 76 89 90 92 89 92 98 98 96 91 95 99 96 97 93 96 100
96 94 93 92 91 92 95 99 97 98 97 97 97 97 96 95 95 94 91 92 74 71 77 85 78 78 79 96 95 97 99 95 100 91 97 96 100 100 100 100 96 96 99
96 99 100 100 100 100 98 98 97 97 97 98 96 95 99 97 95 95 95 96 95 94 81 81 83 83 88 93 98 97 94 83 88 84 82 83 90 100 100 100 100 100 100
100 100 98 98 98 97 97 97 96 96 97 96 96 96 96 96 96 95 95 95 95 95 95 95 95 96 95 96 96 96 94 87 86 85 86 90 90 99 100 100 100 100 100
97 97 96 97 97 97 97 97 96 96 97 97 96 96 96 95 95 95 95 95 95 96 95 95 97 96 96 96 96 91 87 84 84 90 92 96 97 100 100 100 100 100 100
96 96 96 96 96 96 96 96 96 95 95 95 96 96 95 95 95 95 96 96 96 96 96 96 96 96 96 95 92 90 88 86 88 94 97 99 98 98 97 100 100 100 100
95 96 96 96 96 95 96 95 95 95 95 95 96 96 96 95 96 96 96 96 96 96 96 94 94 97 98 97 93 87 83 87 92 96 100 100 100 100 100 100 100 100 100
95 95 96 97 96 95 96 96 96 95 96 96 96 95 95 94 94 93 93 92 89 85 84 88 94 96 94 91 83 81 90 96 100 100 100 100 100 100 100 100 100 100 100
95 97 98 97 96 95 95 96 96 96 96 96 94 90 89 91 92 94 93 90 87 88 89 90 90 88 83 80 79 84 96 100 100 100 100 100 100 100 100 100 100 100 100
93 94 94 95 94 93 90 93 95 96 93 89 87 92 100 100 100 99 95 94 93 90 85 83 83 84 85 84 83 86 94 100 100 100 100 100 100 100 100 100 100 100 100
81 83 86 86 88 88 86 82 79 76 76 81 89 99 100 100 99 96 93 90 87 86 89 91 89 85 82 81 82 91 96 100 100 100 100 100 100 100 100 100 100 100 100

GFSGL_925_rhum_072.txt.gz
RH
69 69 69 70 71 74 75 73 73 72 71 68 70 69 63 61 61 64 64 65 65 67 72 83 86 98 100 98 98 100 100 100 95 90 83 82 80 83 81 84 85 85 80
70 70 70 71 70 72 76 76 75 74 73 71 69 65 62 61 63 64 67 67 67 69 78 95 99 100 100 100 100 100 100 100 97 92 87 90 85 86 86 89 88 75 69
68 71 73 75 74 74 75 74 72 73 73 72 70 69 67 67 67 62 66 74 75 90 100 100 99 100 98 99 100 100 100 100 96 91 92 91 85 94 85 82 79 70 64
67 71 72 73 75 75 72 72 71 69 68 68 69 70 73 73 76 75 82 88 80 71 78 95 92 97 98 99 100 100 100 100 97 91 86 94 89 81 80 65 56 52 45
66 70 71 72 71 72 73 74 71 73 71 70 70 72 77 88 88 85 89 91 85 88 98 100 98 100 99 100 100 100 100 99 99 90 90 86 84 75 69 48 45 37 34
64 65 66 70 73 72 72 73 74 74 74 72 71 71 74 86 86 84 86 100 95 100 100 100 100 100 100 100 100 100 99 99 98 96 88 85 72 60 50 45 37 36 33
60 61 63 65 67 70 72 72 72 72 73 73 71 71 73 79 93 93 90 100 100 100 100 100 100 100 100 100 100 100 100 96 90 85 78 66 54 48 43 44 42 43 42
56 56 59 63 64 66 70 71 71 72 74 75 78 78 86 98 98 89 91 100 100 100 100 100 100 100 100 100 100 100 94 84 72 63 55 53 52 49 52 50 52 54 50
52 53 55 59 64 65 68 72 75 78 86 91 95 95 99 99 100 100 100 100 100 100 100 100 100 100 100 100 95 87 76 64 56 48 46 44 31 26 36 51 50 41 48
50 51 54 58 64 67 70 79 90 92 95 100 100 100 100 100 100 100 100 100 100 100 100 100 100 100 99 94 80 66 65 60 49 46 49 32 33 57 27 42 41 44 44
47 56 58 63 68 77 96 96 99 100 100 100 100 100 100 100 100 100 100 100 100 100 100 100 100 99 96 82 52 54 52 54 50 45 43 45 48 52 51 52 51 52 51
91 97 100 100 98 99 99 100 100 100 100 100 100 100 100 100 100 100 99 99 99 96 98 98 98 95 51 54 49 54 46 58 66 61 55 50 47 50 51 51 52 54 52
100 100 100 100 100 100 100 100 99 100 100 100 100 100 100 100 100 100 100 100 98 95 97 96 95 93 76 70 54 46 60 81 79 69 62 54 51 50 50 56 60 58 55
100 100 100 100 100 100 100 100 100 100 100 100 100 100 100 100 100 100 100 98 98 96 96 96 93 82 77 89 67 75 79 77 72 71 70 60 62 64 66 65 67 64 64
100 100 100 100 100 100 100 100 100 100 99 100 100 100 100 100 100 97 96 97 96 96 96 94 87 92 87 75 78 80 79 81 77 78 77 72 71 70 70 69 72 68 66
100 100 100 100 100 100 100 100 100 99 100 100 99 92 98 96 96 97 97 95 89 89 96 95 96 95 94 86 85 92 87 80 74 76 81 83 80 77 74 70 69 68 65
100 100 100 100 100 99 98 98 98 100 99 98 97 97 96 96 97 98 97 96 94 96 96 96 96 96 94 87 83 81 85 92 94 88 87 85 85 82 79 72 67 65 63
96 97 100 100 99 98 98 98 97 96 95 97 97 96 96 97 96 97 95 96 97 97 98 96 94 92 88 85 85 84 85 88 88 88 87 87 86 82 76 70 66 67 67
98 98 98 98 98 98 97 97 97 96 96 96 97 97 96 96 96 96 96 95 89 85 83 85 88 88 87 85 92 91 92 90 90 90 86 85 85 83 78 73 71 74 75
98 97 97 97 98 97 98 97 96 96 94 94 94 95 98 96 94 95 96 94 90 89 86 86 87 88 90 89 91 90 88 83 81 80 80 83 83 83 81 78 76 75 70
98 97 97 97 97 97 97 97 97 96 95 93 95 100 98 93 94 94 92 94 92 92 94 90 91 92 90 87 83 84 84 84 83 84 84 82 83 85 81 81 81 79 77
96 97 96 95 95 96 96 96 95 95 94 93 95 97 99 95 93 92 95 99 100 99 96 95 90 88 86 89 90 91 88 88 87 86 87 86 84 83 83 84 85 85 85
97 96 95 95 95 96 96 95 94 93 92 92 91 92 93 94 94 94 96 99 97 100 100 98 96 95 93 98 100 97 95 91 92 95 95 92 88 87 88 87 85 85 84
94 92 91 93 93 92 92 93 91 91 89 90 90 90 91 93 95 97 100 100 100 100 100 100 100 100 100 100 100 100 97 100 100 100 100 98 95 92 90 88 86 86 86
88 86 86 86 85 86 85 85 87 87 87 87 87 88 89 91 91 96 100 100 100 100 100 100 100 100 100 100 100 100 100 100 100 100 100 100 100 97 95 92 89 87 86
84 84 84 83 84 84 85 85 87 88 89 90 92 94 94 92 93 98 99 98 100 100 100 100 100 100 100 100 100 100 95 85 97 100 100 100 100 98 94 92 91 90 88

GFSGL_925_rhum_075.txt.gz
RH
51 58 61 64 65 69 76 75 77 77 79 77 82 77 72 70 70 70 67 68 70 72 74 73 72 72 74 79 92 91 98 99 98 90 88 89 82 77 76 76 82 82 80
51 58 62 63 63 66 69 72 74 72 72 73 72 75 73 69 69 70 69 68 70 66 64 66 69 72 76 84 93 99 100 99 99 96 96 94 89 84 78 78 81 78 75
50 57 63 65 66 66 69 70 69 73 71 70 69 71 71 69 69 68 68 66 64 62 63 66 68 73 86 100 100 100 99 100 99 99 99 97 95 87 88 90 88 78 79
52 56 60 65 66 66 67 69 69 70 71 71 71 70 68 67 65 63 62 63 65 65 66 69 72 87 98 100 100 97 96 100 100 100 100 98 93 93 91 83 80 72 64
53 56 60 64 66 65 65 66 67 69 69 69 70 71 72 71 68 66 65 65 68 68 71 80 88 90 92 86 98 100 100 100 100 100 100 94 94 88 86 79 67 56 46
54 56 58 61 64 65 66 67 67 68 68 66 67 67 70 70 69 68 70 77 82 88 91 90 97 97 87 97 100 100 100 99 100 99 97 93 90 83 76 67 52 46 41
51 54 55 58 62 64 66 66 68 69 69 68 67 66 66 68 68 70 75 86 88 88 93 99 99 99 100 100 100 100 100 100 100 98 95 93 89 76 58 51 45 42 40
47 50 52 55 58 61 64 64 66 68 71 72 73 72 71 69 70 72 79 86 92 98 100 100 100 100 100 100 100 100 100 99 99 95 91 86 82 61 47 46 44 46 48
43 48 50 51 54 56 60 64 66 69 71 73 74 75 74 73 72 75 85 93 100 100 100 100 100 100 100 100 99 98 98 98 96 95 97 97 84 54 50 46 50 48 54
35 44 47 48 50 53 56 62 68 70 72 75 82 86 84 86 94 99 100 100 100 100 100 100 100 100 100 100 99 99 98 92 92 81 41 27 17 17 14 27 42 42 43
33 37 44 47 50 54 57 61 70 87 94 98 100 100 100 100 100 100 100 100 100 100 100 100 100 100 100 100 97 95 96 90 59 46 46 46 48 50 53 53 49 51 54
74 62 55 57 61 59 70 95 100 100 100 100 100 99 100 100 100 100 100 100 100 98 99 100 99 97 96 96 96 96 82 53 72 63 48 46 44 47 49 50 52 54 54
94 99 99 100 100 100 100 100 100 100 100 100 100 100 100 98 99 100 100 100 100 100 99 97 98 95 91 62 58 47 75 93 93 82 70 58 57 55 53 52 56 60 59
100 100 100 100 100 99 99 100 100 100 100 100 100 100 100 100 100 100 100 100 99 99 98 98 96 95 88 51 59 92 93 91 85 88 88 78 72 71 67 65 71 76 79
100 100 100 100 100 100 100 100 99 100 98 99 98 97 100 100 100 100 100 100 100 99 96 96 97 98 99 99 99 96 96 95 93 91 89 82 74 74 79 80 78 78 80
98 100 100 100 100 100 99 100 100 100 98 99 97 98 100 100 99 99 98 98 97 96 98 98 98 98 98 98 98 94 90 79 77 78 83 83 81 81 81 81 77 78 80
100 99 96 100 99 98 97 96 97 100 99 99 96 96 96 97 96 97 97 96 96 98 98 99 98 98 95 95 92 84 85 88 84 85 86 87 86 86 84 81 77 76 73
100 99 100 99 99 98 98 98 95 93 94 98 97 96 96 96 96 96 96 96 96 96 95 91 90 88 81 81 82 84 88 92 90 90 86 87 87 84 80 75 71 73 72
98 99 100 98 98 97 97 97 96 96 96 96 98 96 96 96 95 96 97 97 97 97 93 92 96 92 91 89 92 93 91 91 88 90 88 86 91 82 78 75 73 80 84
98 97 98 98 98 98 97 97 96 96 96 96 96 98 97 97 96 97 96 95 96 98 98 95 92 91 95 91 90 89 84 78 76 76 79 80 82 83 84 81 80 77 75
98 97 98 97 97 97 97 96 96 96 96 96 97 96 96 96 96 96 96 95 96 95 96 92 92 90 84 80 77 80 80 82 80 80 79 80 88 84 80 83 82 82 80
97 97 96 96 96 95 94 95 96 96 94 94 96 95 96 94 94 94 95 96 97 94 92 91 88 85 86 88 88 88 85 84 83 84 87 86 81 80 81 84 85 82 81
94 92 92 95 95 96 96 96 96 95 96 96 95 94 93 93 92 90 92 95 93 95 97 96 94 94 95 100 98 94 91 88 90 92 91 89 86 84 86 85 85 85 84
89 87 84 87 87 88 89 89 84 84 85 85 84 84 85 87 89 90 94 96 96 98 100 100 98 98 100 100 100 100 95 100 100 100 100 97 93 91 90 88 86 87 87
78 77 78 79 79 79 78 78 80 79 81 83 84 84 84 85 85 91 94 96 98 99 98 99 100 100 100 100 100 100 100 100 100 100 100 100 99 97 94 91 90 88 92
77 78 78 78 79 79 80 80 82 82 84 86 87 88 88 86 90 92 93 94 99 99 96 97 99 100 100 100 100 100 93 86 100 100 100 100 100 96 95 94 93 90 88

GFSGL_925_rhum_078.txt.gz
RH
63 78 79 81 82 80 79 81 83 82 89 86 81 84 88 90 82 74 72 75 80 79 74 77 74 69 73 76 72 70 75 81 91 84 80 79 84 81 79 84 82 79 76
52 63 72 76 79 80 82 82 83 83 83 82 83 91 91 85 85 80 79 73 76 75 76 77 77 75 74 80 78 80 80 87 93 93 96 90 87 86 86 86 82 84 79
49 56 63 66 69 72 76 80 79 82 83 84 82 83 86 84 80 79 76 72 71 72 72 72 74 76 77 80 81 85 90 98 97 99 97 97 95 94 95 90 84 86 85
52 52 59 64 67 68 69 71 77 79 80 81 82 81 84 83 79 75 73 71 70 70 70 71 72 71 73 74 78 88 100 100 100 100 98 100 98 100 100 100 99 96 82
56 53 54 62 66 68 68 69 71 73 77 76 76 77 75 77 77 75 73 72 72 72 72 72 70 67 67 70 76 95 100 100 100 99 98 100 100 99 99 98 95 96 91
55 55 54 56 62 67 69 70 70 73 73 73 76 75 74 73 72 72 72 73 72 72 72 71 70 70 71 75 71 79 91 98 95 99 98 97 98 99 100 98 93 94 78
50 54 55 57 60 64 68 70 70 71 73 74 74 74 75 75 72 70 69 69 70 71 72 75 78 77 78 84 100 100 100 100 99 98 100 100 100 100 98 95 88 89 93
43 47 53 56 59 62 66 68 69 70 72 74 74 74 74 73 74 73 72 71 73 75 82 82 84 89 90 96 100 100 100 100 99 100 99 97 98 98 92 92 94 97 94
32 43 48 53 57 59 62 67 68 70 72 73 74 74 73 72 69 69 69 69 76 86 91 92 100 100 100 100 100 100 100 99 100 99 99 99 98 99 100 98 98 80 67
93 79 52 49 53 56 60 64 68 70 71 73 74 74 75 75 75 73 72 78 94 100 100 100 100 100 100 100 100 100 98 99 99 98 93 89 82 86 84 56 49 44 47
96 92 93 71 52 53 55 59 64 68 72 76 86 97 96 93 91 90 83 87 99 100 100 100 100 100 100 100 100 96 86 85 94 92 87 64 48 51 47 40 40 46 52
99 100 100 100 96 70 57 66 70 80 96 100 100 100 100 100 100 100 100 100 100 99 99 100 100 100 100 99 96 97 94 89 71 62 49 46 46 52 60 57 55 57 56
99 100 99 99 100 100 100 100 100 100 100 100 100 100 100 100 100 100 100 100 100 98 98 100 100 100 100 100 98 96 96 96 95 95 91 89 82 74 72 72 72 63 63
98 99 100 100 100 99 100 100 100 100 100 100 100 100 100 100 100 100 100 100 99 98 100 98 96 96 97 96 96 95 94 93 95 96 96 96 94 86 76 77 80 81 82
99 100 99 100 100 100 100 100 100 100 98 98 100 98 97 99 100 99 95 98 99 98 96 96 97 98 98 97 96 96 96 96 95 96 95 95 92 86 84 83 88 88 86
99 100 100 100 100 99 98 99 100 100 100 99 99 94 99 99 97 97 98 97 95 96 97 98 98 97 98 97 97 96 96 95 94 92 89 89 91 92 91 79 81 87 89
100 100 99 100 98 97 97 96 94 100 99 97 96 98 98 98 97 99 99 98 98 97 97 98 98 97 98 96 95 95 94 89 94 93 92 91 86 80 85 85 81 81 86
100 98 99 99 98 97 96 98 96 92 93 97 97 97 96 97 97 97 97 95 96 96 97 97 98 98 97 96 96 96 91 89 88 76 82 86 91 90 86 84 83 81 86
99 99 98 97 98 98 97 97 96 96 96 96 97 96 96 96 96 96 96 97 97 97 97 97 96 96 96 95 93 85 88 86 88 90 92 88 84 85 88 88 85 83 82
98 97 98 98 97 97 97 97 96 96 97 97 97 97 97 93 96 97 96 96 97 97 96 96 96 94 93 86 88 87 81 85 85 83 81 82 89 84 86 85 85 88 88
98 98 97 97 97 98 99 98 98 97 96 97 98 97 95 96 98 97 97 96 96 95 96 98 94 88 87 87 87 87 86 84 86 87 94 94 86 85 88 85 87 87 89
97 96 97 98 98 98 98 97 97 97 97 97 98 96 95 96 96 97 96 96 88 94 97 99 93 97 91 95 92 92 92 93 97 92 88 87 87 86 90 90 86 87 88
91 92 96 96 95 94 96 97 98 98 98 99 98 97 93 97 99 98 98 99 96 93 86 94 90 100 91 86 100 100 100 100 100 100 95 88 87 98 91 94 95 93 89
86 90 87 87 87 90 94 95 94 94 95 95 94 90 93 97 94 94 90 86 98 100 87 98 100 90 94 95 93 90 100 98 90 89 97 99 92 90 93 92 87 91 96
85 85 87 92 90 88 87 90 94 92 93 95 94 94 96 98 98 94 100 96 92 94 98 100 94 100 100 92 100 100 98 92 82 69 87 100 100 93 92 99 100 100 91
87 89 91 91 93 93 94 95 93 90 94 95 95 95 97 98 94 99 100 91 87 100 100 98 100 97 96 100 100 100 92 86 94 100 100 100 100 100 100 96 83 89 96

GFSGL_925_rhum_081.txt.gz
RH
94 95 90 90 92 95 95 96 96 94 87 81 83 88 87 90 80 80 70 67 73 73 75 73 69 64 68 65 68 69 79 84 87 78 74 70 71 75 74 72 73 79 77
76 86 86 85 81 85 94 94 93 96 91 83 83 82 85 88 87 86 84 78 74 76 78 82 78 79 77 76 76 77 80 80 84 90 85 83 81 78 77 78 80 86 82
63 84 87 85 84 83 85 84 86 92 91 92 91 89 80 84 84 89 83 79 76 77 74 80 78 78 77 76 77 83 85 88 91 94 87 83 86 87 88 90 97 92 92
56 75 85 86 86 87 88 86 83 84 89 90 92 90 90 86 86 84 85 83 79 77 76 76 77 81 78 78 79 84 90 95 99 100 97 96 98 99 100 100 100 100 99
60 57 68 76 80 84 86 86 87 90 89 89 90 91 89 94 93 93 89 88 87 83 78 77 78 79 78 78 84 84 91 99 99 100 99 100 100 99 98 97 100 100 100
63 60 58 60 69 73 75 78 82 86 88 88 91 90 92 90 90 91 90 89 87 85 82 79 78 77 76 74 74 72 85 96 95 95 92 96 98 98 98 100 100 100 100
63 68 63 61 64 69 73 77 77 78 81 87 89 88 90 90 87 89 88 88 86 84 83 81 81 82 79 76 77 78 83 96 97 96 98 95 98 97 99 100 100 98 98
87 88 85 75 68 67 71 75 77 78 79 81 82 85 87 86 85 81 80 82 84 84 83 84 83 80 78 80 85 98 100 100 100 100 100 100 100 100 100 98 97 97 100
92 95 94 95 88 80 72 71 72 77 79 81 81 82 83 84 83 82 79 76 82 83 82 81 81 80 79 85 94 100 100 100 100 100 100 100 100 100 100 99 100 97 98
92 94 96 100 100 97 92 74 72 75 77 79 80 82 82 82 83 80 78 81 90 90 92 94 94 94 97 99 100 100 100 100 100 100 100 99 98 99 99 98 98 97 97
95 95 98 100 100 100 100 98 76 76 78 79 82 86 87 86 85 82 82 81 83 95 100 100 100 100 100 100 100 100 99 99 99 98 98 96 71 47 46 50 48 49 63
97 97 99 100 99 100 100 100 100 92 80 92 98 100 100 100 100 100 97 95 97 100 100 100 100 100 100 100 99 100 100 99 99 99 98 98 92 87 80 72 81 85 86
98 98 100 100 99 98 98 100 100 100 100 100 100 100 100 100 100 100 100 100 100 99 99 99 99 100 100 99 98 97 96 97 98 97 98 96 95 95 96 95 95 89 79
100 100 100 100 99 100 95 100 100 100 100 100 100 99 100 100 100 100 100 100 100 99 100 100 98 95 93 95 96 97 96 96 96 96 96 97 96 95 95 94 89 84 78
100 100 100 100 98 98 100 100 100 100 100 100 100 100 97 100 100 98 95 100 97 98 96 96 96 97 98 97 97 96 96 96 95 96 96 96 96 96 95 88 80 78 85
100 100 100 100 99 97 93 98 100 100 95 98 97 100 100 99 100 100 96 96 97 97 97 97 97 96 96 97 97 96 96 95 96 96 95 95 95 91 88 80 76 86 92
100 100 100 100 98 97 96 93 92 100 97 100 98 96 97 98 98 99 98 97 97 94 96 96 96 97 97 97 97 96 97 95 95 92 83 79 81 90 89 90 86 87 89
99 100 100 100 99 98 97 98 97 95 95 96 98 99 96 97 96 97 97 94 96 96 97 97 97 97 98 97 96 96 95 85 86 97 96 88 78 77 85 92 86 81 83
100 100 100 99 97 97 99 99 99 98 97 98 96 95 97 97 99 99 99 98 98 98 98 97 96 96 97 96 96 95 93 90 86 82 78 80 80 75 81 80 76 78 82
99 100 99 100 98 98 98 98 96 96 97 98 98 99 96 92 95 97 97 98 98 97 98 99 99 96 96 90 85 85 85 82 81 84 88 87 81 76 86 87 89 92 90
97 98 97 99 100 100 100 100 100 98 97 97 98 96 95 96 97 97 97 96 97 99 99 96 92 90 88 87 86 83 84 90 91 92 87 81 78 82 85 90 88 85 90
99 99 99 100 99 98 98 97 97 97 97 97 98 97 96 98 100 100 91 89 94 96 94 90 90 90 91 90 92 92 96 96 93 88 81 80 82 90 94 86 88 87 81
86 90 97 100 100 100 100 100 100 100 100 100 99 92 89 90 95 99 100 100 87 85 90 83 86 81 85 94 96 94 92 96 98 94 88 82 81 94 96 92 84 82 88
94 97 96 90 90 93 96 98 100 100 100 100 100 100 100 97 92 86 91 99 94 95 99 95 88 84 84 79 80 89 92 90 83 76 77 86 89 86 84 82 92 100 99
90 93 95 98 100 96 94 97 98 98 99 100 98 97 100 99 100 96 91 82 96 100 100 100 98 93 89 93 93 96 94 87 71 69 74 84 88 89 97 100 100 84 82
82 86 86 89 90 87 91 96 100 92 91 99 100 97 90 100 100 99 88 83 100 100 100 100 100 100 100 100 100 98 92 91 91 94 89 89 91 93 96 93 89 93 96